<?xml version="1.0" encoding="UTF-8" standalone="yes"?>
<gpx xmlns="http://www.topografix.com/GPX/1/1" version="1.1">
  <trk>
 <name>01</name>
 <desc>01</desc>
<trkseg>
<trkpt lat="45.7152100" lon="8.3565800">
<time>2017-08-08T14:24:24.354Z</time>
</trkpt>
<trkpt lat="45.7151900" lon="8.3566600">
<time>2017-08-08T14:24:24.354Z</time>
</trkpt>
<trkpt lat="45.7151900" lon="8.3567500">
<time>2017-08-08T14:24:24.354Z</time>
</trkpt>
<trkpt lat="45.7152300" lon="8.3570100">
<time>2017-08-08T14:24:24.354Z</time>
</trkpt>
<trkpt lat="45.7152800" lon="8.3572000">
<time>2017-08-08T14:24:24.354Z</time>
</trkpt>
<trkpt lat="45.7154200" lon="8.3574500">
<time>2017-08-08T14:24:24.354Z</time>
</trkpt>
<trkpt lat="45.7155200" lon="8.3576000">
<time>2017-08-08T14:24:24.354Z</time>
</trkpt>
<trkpt lat="45.7156700" lon="8.3577600">
<time>2017-08-08T14:24:24.355Z</time>
</trkpt>
<trkpt lat="45.7158800" lon="8.3577200">
<time>2017-08-08T14:24:24.355Z</time>
</trkpt>
<trkpt lat="45.7160800" lon="8.3577500">
<time>2017-08-08T14:24:24.355Z</time>
</trkpt>
<trkpt lat="45.7161600" lon="8.3580000">
<time>2017-08-08T14:24:24.355Z</time>
</trkpt>
<trkpt lat="45.7162100" lon="8.3583400">
<time>2017-08-08T14:24:24.355Z</time>
</trkpt>
<trkpt lat="45.7163100" lon="8.3585000">
<time>2017-08-08T14:24:24.355Z</time>
</trkpt>
<trkpt lat="45.7165300" lon="8.3585800">
<time>2017-08-08T14:24:24.355Z</time>
</trkpt>
<trkpt lat="45.7168200" lon="8.3584600">
<time>2017-08-08T14:24:24.356Z</time>
</trkpt>
<trkpt lat="45.7169500" lon="8.3584300">
<time>2017-08-08T14:24:24.356Z</time>
</trkpt>
<trkpt lat="45.7170700" lon="8.3584300">
<time>2017-08-08T14:24:24.356Z</time>
</trkpt>
<trkpt lat="45.7172600" lon="8.3587900">
<time>2017-08-08T14:24:24.356Z</time>
</trkpt>
<trkpt lat="45.7172600" lon="8.3588500">
<time>2017-08-08T14:24:24.356Z</time>
</trkpt>
<trkpt lat="45.7171500" lon="8.3592500">
<time>2017-08-08T14:24:24.356Z</time>
</trkpt>
<trkpt lat="45.7171700" lon="8.3594200">
<time>2017-08-08T14:24:24.356Z</time>
</trkpt>
<trkpt lat="45.7174100" lon="8.3599800">
<time>2017-08-08T14:24:24.356Z</time>
</trkpt>
<trkpt lat="45.7173900" lon="8.3602800">
<time>2017-08-08T14:24:24.357Z</time>
</trkpt>
<trkpt lat="45.7173100" lon="8.3603300">
<time>2017-08-08T14:24:24.357Z</time>
</trkpt>
<trkpt lat="45.7171400" lon="8.3604100">
<time>2017-08-08T14:24:24.357Z</time>
</trkpt>
<trkpt lat="45.7170000" lon="8.3605600">
<time>2017-08-08T14:24:24.357Z</time>
</trkpt>
<trkpt lat="45.7169800" lon="8.3607300">
<time>2017-08-08T14:24:24.357Z</time>
</trkpt>
<trkpt lat="45.7172900" lon="8.3614900">
<time>2017-08-08T14:24:24.357Z</time>
</trkpt>
<trkpt lat="45.7174100" lon="8.3616700">
<time>2017-08-08T14:24:24.357Z</time>
</trkpt>
<trkpt lat="45.7175600" lon="8.3620800">
<time>2017-08-08T14:24:24.358Z</time>
</trkpt>
<trkpt lat="45.7176700" lon="8.3622900">
<time>2017-08-08T14:24:24.358Z</time>
</trkpt>
<trkpt lat="45.7177900" lon="8.3623400">
<time>2017-08-08T14:24:24.358Z</time>
</trkpt>
<trkpt lat="45.7180700" lon="8.3622800">
<time>2017-08-08T14:24:24.358Z</time>
</trkpt>
<trkpt lat="45.7185100" lon="8.3621300">
<time>2017-08-08T14:24:24.358Z</time>
</trkpt>
<trkpt lat="45.7187400" lon="8.3623000">
<time>2017-08-08T14:24:24.358Z</time>
</trkpt>
<trkpt lat="45.7189700" lon="8.3626700">
<time>2017-08-08T14:24:24.358Z</time>
</trkpt>
<trkpt lat="45.7192800" lon="8.3630600">
<time>2017-08-08T14:24:24.358Z</time>
</trkpt>
<trkpt lat="45.7194600" lon="8.3632100">
<time>2017-08-08T14:24:24.359Z</time>
</trkpt>
<trkpt lat="45.7196100" lon="8.3633200">
<time>2017-08-08T14:24:24.359Z</time>
</trkpt>
<trkpt lat="45.7196700" lon="8.3636400">
<time>2017-08-08T14:24:24.359Z</time>
</trkpt>
<trkpt lat="45.7195700" lon="8.3642100">
<time>2017-08-08T14:24:24.359Z</time>
</trkpt>
<trkpt lat="45.7198000" lon="8.3643500">
<time>2017-08-08T14:24:24.359Z</time>
</trkpt>
<trkpt lat="45.7201300" lon="8.3641400">
<time>2017-08-08T14:24:24.359Z</time>
</trkpt>
<trkpt lat="45.7202400" lon="8.3639600">
<time>2017-08-08T14:24:24.359Z</time>
</trkpt>
<trkpt lat="45.7205100" lon="8.3640400">
<time>2017-08-08T14:24:24.360Z</time>
</trkpt>
<trkpt lat="45.7205500" lon="8.3640800">
<time>2017-08-08T14:24:24.360Z</time>
</trkpt>
<trkpt lat="45.7206700" lon="8.3640600">
<time>2017-08-08T14:24:24.360Z</time>
</trkpt>
<trkpt lat="45.7209200" lon="8.3639700">
<time>2017-08-08T14:24:24.360Z</time>
</trkpt>
<trkpt lat="45.7210500" lon="8.3637900">
<time>2017-08-08T14:24:24.360Z</time>
</trkpt>
<trkpt lat="45.7211300" lon="8.3634700">
<time>2017-08-08T14:24:24.360Z</time>
</trkpt>
<trkpt lat="45.7211700" lon="8.3630800">
<time>2017-08-08T14:24:24.360Z</time>
</trkpt>
<trkpt lat="45.7214000" lon="8.3630200">
<time>2017-08-08T14:24:24.360Z</time>
</trkpt>
<trkpt lat="45.7214800" lon="8.3631300">
<time>2017-08-08T14:24:24.361Z</time>
</trkpt>
<trkpt lat="45.7215700" lon="8.3632300">
<time>2017-08-08T14:24:24.361Z</time>
</trkpt>
<trkpt lat="45.7219600" lon="8.3635400">
<time>2017-08-08T14:24:24.361Z</time>
</trkpt>
<trkpt lat="45.7222100" lon="8.3636200">
<time>2017-08-08T14:24:24.361Z</time>
</trkpt>
<trkpt lat="45.7223400" lon="8.3636800">
<time>2017-08-08T14:24:24.361Z</time>
</trkpt>
<trkpt lat="45.7226600" lon="8.3635700">
<time>2017-08-08T14:24:24.361Z</time>
</trkpt>
<trkpt lat="45.7227800" lon="8.3637600">
<time>2017-08-08T14:24:24.361Z</time>
</trkpt>
<trkpt lat="45.7229100" lon="8.3640900">
<time>2017-08-08T14:24:24.361Z</time>
</trkpt>
<trkpt lat="45.7229800" lon="8.3642500">
<time>2017-08-08T14:24:24.361Z</time>
</trkpt>
<trkpt lat="45.7230700" lon="8.3644800">
<time>2017-08-08T14:24:24.362Z</time>
</trkpt>
<trkpt lat="45.7232300" lon="8.3648500">
<time>2017-08-08T14:24:24.362Z</time>
</trkpt>
<trkpt lat="45.7232400" lon="8.3649000">
<time>2017-08-08T14:24:24.362Z</time>
</trkpt>
<trkpt lat="45.7232600" lon="8.3652400">
<time>2017-08-08T14:24:24.362Z</time>
</trkpt>
<trkpt lat="45.7233400" lon="8.3655200">
<time>2017-08-08T14:24:24.362Z</time>
</trkpt>
<trkpt lat="45.7233900" lon="8.3656900">
<time>2017-08-08T14:24:24.362Z</time>
</trkpt>
<trkpt lat="45.7234200" lon="8.3657700">
<time>2017-08-08T14:24:24.362Z</time>
</trkpt>
<trkpt lat="45.7234400" lon="8.3660900">
<time>2017-08-08T14:24:24.362Z</time>
</trkpt>
<trkpt lat="45.7234800" lon="8.3665800">
<time>2017-08-08T14:24:24.363Z</time>
</trkpt>
<trkpt lat="45.7236300" lon="8.3670800">
<time>2017-08-08T14:24:24.363Z</time>
</trkpt>
<trkpt lat="45.7238000" lon="8.3672600">
<time>2017-08-08T14:24:24.363Z</time>
</trkpt>
<trkpt lat="45.7239000" lon="8.3673900">
<time>2017-08-08T14:24:24.363Z</time>
</trkpt>
<trkpt lat="45.7240700" lon="8.3676100">
<time>2017-08-08T14:24:24.363Z</time>
</trkpt>
<trkpt lat="45.7241400" lon="8.3675800">
<time>2017-08-08T14:24:24.363Z</time>
</trkpt>
<trkpt lat="45.7243400" lon="8.3675300">
<time>2017-08-08T14:24:24.363Z</time>
</trkpt>
<trkpt lat="45.7245000" lon="8.3675800">
<time>2017-08-08T14:24:24.363Z</time>
</trkpt>
<trkpt lat="45.7245600" lon="8.3676300">
<time>2017-08-08T14:24:24.363Z</time>
</trkpt>
<trkpt lat="45.7246900" lon="8.3678300">
<time>2017-08-08T14:24:24.364Z</time>
</trkpt>
<trkpt lat="45.7247800" lon="8.3680900">
<time>2017-08-08T14:24:24.364Z</time>
</trkpt>
<trkpt lat="45.7248000" lon="8.3681300">
<time>2017-08-08T14:24:24.364Z</time>
</trkpt>
<trkpt lat="45.7249200" lon="8.3683900">
<time>2017-08-08T14:24:24.364Z</time>
</trkpt>
<trkpt lat="45.7249400" lon="8.3688100">
<time>2017-08-08T14:24:24.364Z</time>
</trkpt>
<trkpt lat="45.7249900" lon="8.3691700">
<time>2017-08-08T14:24:24.364Z</time>
</trkpt>
<trkpt lat="45.7251400" lon="8.3696200">
<time>2017-08-08T14:24:24.364Z</time>
</trkpt>
<trkpt lat="45.7251400" lon="8.3697600">
<time>2017-08-08T14:24:24.364Z</time>
</trkpt>
<trkpt lat="45.7251200" lon="8.3700700">
<time>2017-08-08T14:24:24.364Z</time>
</trkpt>
<trkpt lat="45.7251100" lon="8.3704200">
<time>2017-08-08T14:24:24.365Z</time>
</trkpt>
<trkpt lat="45.7251500" lon="8.3705400">
<time>2017-08-08T14:24:24.365Z</time>
</trkpt>
<trkpt lat="45.7253000" lon="8.3705400">
<time>2017-08-08T14:24:24.365Z</time>
</trkpt>
<trkpt lat="45.7254200" lon="8.3704500">
<time>2017-08-08T14:24:24.365Z</time>
</trkpt>
<trkpt lat="45.7256400" lon="8.3702800">
<time>2017-08-08T14:24:24.365Z</time>
</trkpt>
<trkpt lat="45.7257200" lon="8.3702200">
<time>2017-08-08T14:24:24.365Z</time>
</trkpt>
<trkpt lat="45.7258500" lon="8.3701000">
<time>2017-08-08T14:24:24.365Z</time>
</trkpt>
<trkpt lat="45.7259200" lon="8.3700300">
<time>2017-08-08T14:24:24.365Z</time>
</trkpt>
<trkpt lat="45.7260100" lon="8.3698400">
<time>2017-08-08T14:24:24.365Z</time>
</trkpt>
<trkpt lat="45.7262300" lon="8.3700300">
<time>2017-08-08T14:24:24.365Z</time>
</trkpt>
<trkpt lat="45.7262300" lon="8.3701200">
<time>2017-08-08T14:24:24.365Z</time>
</trkpt>
<trkpt lat="45.7262300" lon="8.3702900">
<time>2017-08-08T14:24:24.366Z</time>
</trkpt>
<trkpt lat="45.7262200" lon="8.3707000">
<time>2017-08-08T14:24:24.366Z</time>
</trkpt>
<trkpt lat="45.7262500" lon="8.3711100">
<time>2017-08-08T14:24:24.374Z</time>
</trkpt>
<trkpt lat="45.7262000" lon="8.3714300">
<time>2017-08-08T14:24:24.374Z</time>
</trkpt>
<trkpt lat="45.7261000" lon="8.3713500">
<time>2017-08-08T14:24:24.374Z</time>
</trkpt>
<trkpt lat="45.7260500" lon="8.3706700">
<time>2017-08-08T14:24:24.374Z</time>
</trkpt>
<trkpt lat="45.7258500" lon="8.3706600">
<time>2017-08-08T14:24:24.374Z</time>
</trkpt>
<trkpt lat="45.7256600" lon="8.3709600">
<time>2017-08-08T14:24:24.374Z</time>
</trkpt>
<trkpt lat="45.7255500" lon="8.3712600">
<time>2017-08-08T14:24:24.374Z</time>
</trkpt>
<trkpt lat="45.7255600" lon="8.3716400">
<time>2017-08-08T14:24:24.374Z</time>
</trkpt>
<trkpt lat="45.7255700" lon="8.3721500">
<time>2017-08-08T14:24:24.374Z</time>
</trkpt>
<trkpt lat="45.7255900" lon="8.3727700">
<time>2017-08-08T14:24:24.374Z</time>
</trkpt>
<trkpt lat="45.7255900" lon="8.3728200">
<time>2017-08-08T14:24:24.375Z</time>
</trkpt>
<trkpt lat="45.7255600" lon="8.3728900">
<time>2017-08-08T14:24:24.375Z</time>
</trkpt>
<trkpt lat="45.7255500" lon="8.3729000">
<time>2017-08-08T14:24:24.375Z</time>
</trkpt>
<trkpt lat="45.7255400" lon="8.3729000">
<time>2017-08-08T14:24:24.375Z</time>
</trkpt>
<trkpt lat="45.7255200" lon="8.3729100">
<time>2017-08-08T14:24:24.375Z</time>
</trkpt>
<trkpt lat="45.7254800" lon="8.3729300">
<time>2017-08-08T14:24:24.375Z</time>
</trkpt>
<trkpt lat="45.7254300" lon="8.3729300">
<time>2017-08-08T14:24:24.375Z</time>
</trkpt>
<trkpt lat="45.7254000" lon="8.3729200">
<time>2017-08-08T14:24:24.375Z</time>
</trkpt>
<trkpt lat="45.7253200" lon="8.3728300">
<time>2017-08-08T14:24:24.375Z</time>
</trkpt>
<trkpt lat="45.7252500" lon="8.3727900">
<time>2017-08-08T14:24:24.375Z</time>
</trkpt>
<trkpt lat="45.7251900" lon="8.3726900">
<time>2017-08-08T14:24:24.376Z</time>
</trkpt>
<trkpt lat="45.7250300" lon="8.3726100">
<time>2017-08-08T14:24:24.376Z</time>
</trkpt>
<trkpt lat="45.7250800" lon="8.3727500">
<time>2017-08-08T14:24:24.376Z</time>
</trkpt>
<trkpt lat="45.7251200" lon="8.3728200">
<time>2017-08-08T14:24:24.376Z</time>
</trkpt>
<trkpt lat="45.7251800" lon="8.3729600">
<time>2017-08-08T14:24:24.376Z</time>
</trkpt>
<trkpt lat="45.7252100" lon="8.3730200">
<time>2017-08-08T14:24:24.376Z</time>
</trkpt>
<trkpt lat="45.7252400" lon="8.3730400">
<time>2017-08-08T14:24:24.376Z</time>
</trkpt>
<trkpt lat="45.7252800" lon="8.3731500">
<time>2017-08-08T14:24:24.376Z</time>
</trkpt>
<trkpt lat="45.7253100" lon="8.3732600">
<time>2017-08-08T14:24:24.376Z</time>
</trkpt>
<trkpt lat="45.7253400" lon="8.3733300">
<time>2017-08-08T14:24:24.376Z</time>
</trkpt>
<trkpt lat="45.7253800" lon="8.3734000">
<time>2017-08-08T14:24:24.377Z</time>
</trkpt>
<trkpt lat="45.7255100" lon="8.3735800">
<time>2017-08-08T14:24:24.377Z</time>
</trkpt>
<trkpt lat="45.7255700" lon="8.3737400">
<time>2017-08-08T14:24:24.377Z</time>
</trkpt>
<trkpt lat="45.7255900" lon="8.3737800">
<time>2017-08-08T14:24:24.377Z</time>
</trkpt>
<trkpt lat="45.7256200" lon="8.3738100">
<time>2017-08-08T14:24:24.377Z</time>
</trkpt>
<trkpt lat="45.7256300" lon="8.3739000">
<time>2017-08-08T14:24:24.377Z</time>
</trkpt>
<trkpt lat="45.7256300" lon="8.3739500">
<time>2017-08-08T14:24:24.377Z</time>
</trkpt>
<trkpt lat="45.7256200" lon="8.3741700">
<time>2017-08-08T14:24:24.377Z</time>
</trkpt>
<trkpt lat="45.7256700" lon="8.3742800">
<time>2017-08-08T14:24:24.377Z</time>
</trkpt>
<trkpt lat="45.7256900" lon="8.3743300">
<time>2017-08-08T14:24:24.377Z</time>
</trkpt>
<trkpt lat="45.7257000" lon="8.3744000">
<time>2017-08-08T14:24:24.378Z</time>
</trkpt>
<trkpt lat="45.7257700" lon="8.3746800">
<time>2017-08-08T14:24:24.378Z</time>
</trkpt>
<trkpt lat="45.7259000" lon="8.3749100">
<time>2017-08-08T14:24:24.378Z</time>
</trkpt>
<trkpt lat="45.7259300" lon="8.3749700">
<time>2017-08-08T14:24:24.378Z</time>
</trkpt>
<trkpt lat="45.7259900" lon="8.3752500">
<time>2017-08-08T14:24:24.378Z</time>
</trkpt>
<trkpt lat="45.7260200" lon="8.3752800">
<time>2017-08-08T14:24:24.378Z</time>
</trkpt>
<trkpt lat="45.7260200" lon="8.3753000">
<time>2017-08-08T14:24:24.378Z</time>
</trkpt>
<trkpt lat="45.7260100" lon="8.3755000">
<time>2017-08-08T14:24:24.378Z</time>
</trkpt>
<trkpt lat="45.7260100" lon="8.3756200">
<time>2017-08-08T14:24:24.378Z</time>
</trkpt>
<trkpt lat="45.7260100" lon="8.3756400">
<time>2017-08-08T14:24:24.378Z</time>
</trkpt>
<trkpt lat="45.7260000" lon="8.3759200">
<time>2017-08-08T14:24:24.379Z</time>
</trkpt>
<trkpt lat="45.7260000" lon="8.3762200">
<time>2017-08-08T14:24:24.379Z</time>
</trkpt>
<trkpt lat="45.7260500" lon="8.3766000">
<time>2017-08-08T14:24:24.379Z</time>
</trkpt>
<trkpt lat="45.7260600" lon="8.3767200">
<time>2017-08-08T14:24:24.379Z</time>
</trkpt>
<trkpt lat="45.7261100" lon="8.3768900">
<time>2017-08-08T14:24:24.379Z</time>
</trkpt>
<trkpt lat="45.7261300" lon="8.3769700">
<time>2017-08-08T14:24:24.379Z</time>
</trkpt>
<trkpt lat="45.7261300" lon="8.3770600">
<time>2017-08-08T14:24:24.379Z</time>
</trkpt>
<trkpt lat="45.7261600" lon="8.3772600">
<time>2017-08-08T14:24:24.379Z</time>
</trkpt>
<trkpt lat="45.7261700" lon="8.3773800">
<time>2017-08-08T14:24:24.379Z</time>
</trkpt>
<trkpt lat="45.7261600" lon="8.3774600">
<time>2017-08-08T14:24:24.380Z</time>
</trkpt>
<trkpt lat="45.7261200" lon="8.3776300">
<time>2017-08-08T14:24:24.380Z</time>
</trkpt>
<trkpt lat="45.7261500" lon="8.3780000">
<time>2017-08-08T14:24:24.380Z</time>
</trkpt>
<trkpt lat="45.7262300" lon="8.3782600">
<time>2017-08-08T14:24:24.380Z</time>
</trkpt>
<trkpt lat="45.7262600" lon="8.3783300">
<time>2017-08-08T14:24:24.380Z</time>
</trkpt>
<trkpt lat="45.7262700" lon="8.3784000">
<time>2017-08-08T14:24:24.380Z</time>
</trkpt>
<trkpt lat="45.7262700" lon="8.3784900">
<time>2017-08-08T14:24:24.380Z</time>
</trkpt>
<trkpt lat="45.7262800" lon="8.3785600">
<time>2017-08-08T14:24:24.380Z</time>
</trkpt>
<trkpt lat="45.7263000" lon="8.3788600">
<time>2017-08-08T14:24:24.380Z</time>
</trkpt>
<trkpt lat="45.7263500" lon="8.3791600">
<time>2017-08-08T14:24:24.380Z</time>
</trkpt>
<trkpt lat="45.7263200" lon="8.3792900">
<time>2017-08-08T14:24:24.380Z</time>
</trkpt>
<trkpt lat="45.7262100" lon="8.3793100">
<time>2017-08-08T14:24:24.381Z</time>
</trkpt>
<trkpt lat="45.7260700" lon="8.3792700">
<time>2017-08-08T14:24:24.381Z</time>
</trkpt>
<trkpt lat="45.7260100" lon="8.3792600">
<time>2017-08-08T14:24:24.381Z</time>
</trkpt>
<trkpt lat="45.7259200" lon="8.3793700">
<time>2017-08-08T14:24:24.381Z</time>
</trkpt>
<trkpt lat="45.7258600" lon="8.3794500">
<time>2017-08-08T14:24:24.381Z</time>
</trkpt>
<trkpt lat="45.7258100" lon="8.3795600">
<time>2017-08-08T14:24:24.381Z</time>
</trkpt>
<trkpt lat="45.7257100" lon="8.3797700">
<time>2017-08-08T14:24:24.381Z</time>
</trkpt>
<trkpt lat="45.7256800" lon="8.3797800">
<time>2017-08-08T14:24:24.381Z</time>
</trkpt>
<trkpt lat="45.7256300" lon="8.3798200">
<time>2017-08-08T14:24:24.381Z</time>
</trkpt>
<trkpt lat="45.7256000" lon="8.3798500">
<time>2017-08-08T14:24:24.382Z</time>
</trkpt>
<trkpt lat="45.7255200" lon="8.3799400">
<time>2017-08-08T14:24:24.382Z</time>
</trkpt>
<trkpt lat="45.7254600" lon="8.3798900">
<time>2017-08-08T14:24:24.382Z</time>
</trkpt>
<trkpt lat="45.7254400" lon="8.3798300">
<time>2017-08-08T14:24:24.382Z</time>
</trkpt>
<trkpt lat="45.7254800" lon="8.3797500">
<time>2017-08-08T14:24:24.382Z</time>
</trkpt>
<trkpt lat="45.7255200" lon="8.3797300">
<time>2017-08-08T14:24:24.382Z</time>
</trkpt>
<trkpt lat="45.7255400" lon="8.3797100">
<time>2017-08-08T14:24:24.382Z</time>
</trkpt>
<trkpt lat="45.7255500" lon="8.3796900">
<time>2017-08-08T14:24:24.382Z</time>
</trkpt>
<trkpt lat="45.7256200" lon="8.3796400">
<time>2017-08-08T14:24:24.382Z</time>
</trkpt>
<trkpt lat="45.7256700" lon="8.3795200">
<time>2017-08-08T14:24:24.382Z</time>
</trkpt>
<trkpt lat="45.7256700" lon="8.3794500">
<time>2017-08-08T14:24:24.383Z</time>
</trkpt>
<trkpt lat="45.7256900" lon="8.3794000">
<time>2017-08-08T14:24:24.383Z</time>
</trkpt>
<trkpt lat="45.7257000" lon="8.3793700">
<time>2017-08-08T14:24:24.383Z</time>
</trkpt>
<trkpt lat="45.7257100" lon="8.3792900">
<time>2017-08-08T14:24:24.383Z</time>
</trkpt>
<trkpt lat="45.7257100" lon="8.3789900">
<time>2017-08-08T14:24:24.383Z</time>
</trkpt>
<trkpt lat="45.7257200" lon="8.3789400">
<time>2017-08-08T14:24:24.383Z</time>
</trkpt>
<trkpt lat="45.7257200" lon="8.3788800">
<time>2017-08-08T14:24:24.383Z</time>
</trkpt>
<trkpt lat="45.7257300" lon="8.3788300">
<time>2017-08-08T14:24:24.383Z</time>
</trkpt>
<trkpt lat="45.7257400" lon="8.3787900">
<time>2017-08-08T14:24:24.383Z</time>
</trkpt>
<trkpt lat="45.7257600" lon="8.3787400">
<time>2017-08-08T14:24:24.383Z</time>
</trkpt>
<trkpt lat="45.7257700" lon="8.3786800">
<time>2017-08-08T14:24:24.384Z</time>
</trkpt>
<trkpt lat="45.7258000" lon="8.3785700">
<time>2017-08-08T14:24:24.384Z</time>
</trkpt>
<trkpt lat="45.7257400" lon="8.3782700">
<time>2017-08-08T14:24:24.384Z</time>
</trkpt>
<trkpt lat="45.7256800" lon="8.3781700">
<time>2017-08-08T14:24:24.384Z</time>
</trkpt>
<trkpt lat="45.7255900" lon="8.3779000">
<time>2017-08-08T14:24:24.384Z</time>
</trkpt>
<trkpt lat="45.7255900" lon="8.3778600">
<time>2017-08-08T14:24:24.384Z</time>
</trkpt>
<trkpt lat="45.7255800" lon="8.3778100">
<time>2017-08-08T14:24:24.384Z</time>
</trkpt>
<trkpt lat="45.7255300" lon="8.3778000">
<time>2017-08-08T14:24:24.384Z</time>
</trkpt>
<trkpt lat="45.7255000" lon="8.3779300">
<time>2017-08-08T14:24:24.385Z</time>
</trkpt>
<trkpt lat="45.7255000" lon="8.3779900">
<time>2017-08-08T14:24:24.385Z</time>
</trkpt>
<trkpt lat="45.7255000" lon="8.3780900">
<time>2017-08-08T14:24:24.385Z</time>
</trkpt>
<trkpt lat="45.7255100" lon="8.3781500">
<time>2017-08-08T14:24:24.385Z</time>
</trkpt>
<trkpt lat="45.7255000" lon="8.3782400">
<time>2017-08-08T14:24:24.385Z</time>
</trkpt>
<trkpt lat="45.7255400" lon="8.3783300">
<time>2017-08-08T14:24:24.385Z</time>
</trkpt>
<trkpt lat="45.7255500" lon="8.3784900">
<time>2017-08-08T14:24:24.385Z</time>
</trkpt>
<trkpt lat="45.7255400" lon="8.3785400">
<time>2017-08-08T14:24:24.385Z</time>
</trkpt>
<trkpt lat="45.7255100" lon="8.3786800">
<time>2017-08-08T14:24:24.385Z</time>
</trkpt>
<trkpt lat="45.7254900" lon="8.3787000">
<time>2017-08-08T14:24:24.385Z</time>
</trkpt>
<trkpt lat="45.7253900" lon="8.3789000">
<time>2017-08-08T14:24:24.385Z</time>
</trkpt>
<trkpt lat="45.7253900" lon="8.3789200">
<time>2017-08-08T14:24:24.386Z</time>
</trkpt>
<trkpt lat="45.7253300" lon="8.3790000">
<time>2017-08-08T14:24:24.386Z</time>
</trkpt>
<trkpt lat="45.7252400" lon="8.3790700">
<time>2017-08-08T14:24:24.386Z</time>
</trkpt>
<trkpt lat="45.7252100" lon="8.3790900">
<time>2017-08-08T14:24:24.386Z</time>
</trkpt>
<trkpt lat="45.7251100" lon="8.3792000">
<time>2017-08-08T14:24:24.386Z</time>
</trkpt>
<trkpt lat="45.7250000" lon="8.3792900">
<time>2017-08-08T14:24:24.386Z</time>
</trkpt>
<trkpt lat="45.7249900" lon="8.3793300">
<time>2017-08-08T14:24:24.386Z</time>
</trkpt>
<trkpt lat="45.7249900" lon="8.3794300">
<time>2017-08-08T14:24:24.386Z</time>
</trkpt>
<trkpt lat="45.7250200" lon="8.3795900">
<time>2017-08-08T14:24:24.386Z</time>
</trkpt>
<trkpt lat="45.7250100" lon="8.3797400">
<time>2017-08-08T14:24:24.386Z</time>
</trkpt>
<trkpt lat="45.7249900" lon="8.3799200">
<time>2017-08-08T14:24:24.387Z</time>
</trkpt>
<trkpt lat="45.7249300" lon="8.3799900">
<time>2017-08-08T14:24:24.387Z</time>
</trkpt>
<trkpt lat="45.7248600" lon="8.3799700">
<time>2017-08-08T14:24:24.387Z</time>
</trkpt>
<trkpt lat="45.7248500" lon="8.3800000">
<time>2017-08-08T14:24:24.387Z</time>
</trkpt>
<trkpt lat="45.7248100" lon="8.3800000">
<time>2017-08-08T14:24:24.387Z</time>
</trkpt>
<trkpt lat="45.7247100" lon="8.3801000">
<time>2017-08-08T14:24:24.387Z</time>
</trkpt>
<trkpt lat="45.7246500" lon="8.3801500">
<time>2017-08-08T14:24:24.387Z</time>
</trkpt>
<trkpt lat="45.7245500" lon="8.3804200">
<time>2017-08-08T14:24:24.387Z</time>
</trkpt>
<trkpt lat="45.7245300" lon="8.3805300">
<time>2017-08-08T14:24:24.387Z</time>
</trkpt>
<trkpt lat="45.7245700" lon="8.3807400">
<time>2017-08-08T14:24:24.387Z</time>
</trkpt>
<trkpt lat="45.7246600" lon="8.3808600">
<time>2017-08-08T14:24:24.387Z</time>
</trkpt>
<trkpt lat="45.7247100" lon="8.3809700">
<time>2017-08-08T14:24:24.388Z</time>
</trkpt>
<trkpt lat="45.7247400" lon="8.3811700">
<time>2017-08-08T14:24:24.388Z</time>
</trkpt>
<trkpt lat="45.7247100" lon="8.3812900">
<time>2017-08-08T14:24:24.388Z</time>
</trkpt>
<trkpt lat="45.7246100" lon="8.3814200">
<time>2017-08-08T14:24:24.388Z</time>
</trkpt>
<trkpt lat="45.7246000" lon="8.3814300">
<time>2017-08-08T14:24:24.388Z</time>
</trkpt>
<trkpt lat="45.7245600" lon="8.3814600">
<time>2017-08-08T14:24:24.388Z</time>
</trkpt>
<trkpt lat="45.7245400" lon="8.3814700">
<time>2017-08-08T14:24:24.388Z</time>
</trkpt>
<trkpt lat="45.7245200" lon="8.3814800">
<time>2017-08-08T14:24:24.388Z</time>
</trkpt>
<trkpt lat="45.7244800" lon="8.3814900">
<time>2017-08-08T14:24:24.388Z</time>
</trkpt>
<trkpt lat="45.7244300" lon="8.3815000">
<time>2017-08-08T14:24:24.388Z</time>
</trkpt>
<trkpt lat="45.7241900" lon="8.3815200">
<time>2017-08-08T14:24:24.389Z</time>
</trkpt>
<trkpt lat="45.7240300" lon="8.3816100">
<time>2017-08-08T14:24:24.389Z</time>
</trkpt>
<trkpt lat="45.7238000" lon="8.3817800">
<time>2017-08-08T14:24:24.389Z</time>
</trkpt>
<trkpt lat="45.7237200" lon="8.3821400">
<time>2017-08-08T14:24:24.389Z</time>
</trkpt>
<trkpt lat="45.7238600" lon="8.3824200">
<time>2017-08-08T14:24:24.389Z</time>
</trkpt>
<trkpt lat="45.7239100" lon="8.3824500">
<time>2017-08-08T14:24:24.389Z</time>
</trkpt>
<trkpt lat="45.7239300" lon="8.3825100">
<time>2017-08-08T14:24:24.389Z</time>
</trkpt>
<trkpt lat="45.7238600" lon="8.3825200">
<time>2017-08-08T14:24:24.389Z</time>
</trkpt>
<trkpt lat="45.7237600" lon="8.3824100">
<time>2017-08-08T14:24:24.389Z</time>
</trkpt>
<trkpt lat="45.7236600" lon="8.3823100">
<time>2017-08-08T14:24:24.389Z</time>
</trkpt>
<trkpt lat="45.7236200" lon="8.3821500">
<time>2017-08-08T14:24:24.390Z</time>
</trkpt>
<trkpt lat="45.7235800" lon="8.3820900">
<time>2017-08-08T14:24:24.390Z</time>
</trkpt>
<trkpt lat="45.7235400" lon="8.3820300">
<time>2017-08-08T14:24:24.390Z</time>
</trkpt>
<trkpt lat="45.7235100" lon="8.3819500">
<time>2017-08-08T14:24:24.390Z</time>
</trkpt>
<trkpt lat="45.7235200" lon="8.3819300">
<time>2017-08-08T14:24:24.390Z</time>
</trkpt>
<trkpt lat="45.7235000" lon="8.3818200">
<time>2017-08-08T14:24:24.390Z</time>
</trkpt>
<trkpt lat="45.7235100" lon="8.3817300">
<time>2017-08-08T14:24:24.390Z</time>
</trkpt>
<trkpt lat="45.7235100" lon="8.3816700">
<time>2017-08-08T14:24:24.390Z</time>
</trkpt>
<trkpt lat="45.7234900" lon="8.3815600">
<time>2017-08-08T14:24:24.390Z</time>
</trkpt>
<trkpt lat="45.7235100" lon="8.3815200">
<time>2017-08-08T14:24:24.390Z</time>
</trkpt>
<trkpt lat="45.7235600" lon="8.3814300">
<time>2017-08-08T14:24:24.391Z</time>
</trkpt>
<trkpt lat="45.7236200" lon="8.3813700">
<time>2017-08-08T14:24:24.391Z</time>
</trkpt>
<trkpt lat="45.7236600" lon="8.3813500">
<time>2017-08-08T14:24:24.391Z</time>
</trkpt>
<trkpt lat="45.7237600" lon="8.3812600">
<time>2017-08-08T14:24:24.391Z</time>
</trkpt>
<trkpt lat="45.7238700" lon="8.3812100">
<time>2017-08-08T14:24:24.391Z</time>
</trkpt>
<trkpt lat="45.7239700" lon="8.3811600">
<time>2017-08-08T14:24:24.391Z</time>
</trkpt>
<trkpt lat="45.7239900" lon="8.3811100">
<time>2017-08-08T14:24:24.391Z</time>
</trkpt>
<trkpt lat="45.7240200" lon="8.3810400">
<time>2017-08-08T14:24:24.391Z</time>
</trkpt>
<trkpt lat="45.7240200" lon="8.3809400">
<time>2017-08-08T14:24:24.391Z</time>
</trkpt>
<trkpt lat="45.7239900" lon="8.3809500">
<time>2017-08-08T14:24:24.391Z</time>
</trkpt>
<trkpt lat="45.7239100" lon="8.3810600">
<time>2017-08-08T14:24:24.392Z</time>
</trkpt>
<trkpt lat="45.7237900" lon="8.3810700">
<time>2017-08-08T14:24:24.392Z</time>
</trkpt>
<trkpt lat="45.7237800" lon="8.3810600">
<time>2017-08-08T14:24:24.392Z</time>
</trkpt>
<trkpt lat="45.7235900" lon="8.3810600">
<time>2017-08-08T14:24:24.392Z</time>
</trkpt>
<trkpt lat="45.7234200" lon="8.3812300">
<time>2017-08-08T14:24:24.392Z</time>
</trkpt>
<trkpt lat="45.7234000" lon="8.3812800">
<time>2017-08-08T14:24:24.392Z</time>
</trkpt>
<trkpt lat="45.7233200" lon="8.3813800">
<time>2017-08-08T14:24:24.392Z</time>
</trkpt>
<trkpt lat="45.7232700" lon="8.3813600">
<time>2017-08-08T14:24:24.392Z</time>
</trkpt>
<trkpt lat="45.7232300" lon="8.3813800">
<time>2017-08-08T14:24:24.392Z</time>
</trkpt>
<trkpt lat="45.7232200" lon="8.3814500">
<time>2017-08-08T14:24:24.392Z</time>
</trkpt>
<trkpt lat="45.7231700" lon="8.3816000">
<time>2017-08-08T14:24:24.393Z</time>
</trkpt>
<trkpt lat="45.7231600" lon="8.3816100">
<time>2017-08-08T14:24:24.393Z</time>
</trkpt>
<trkpt lat="45.7231400" lon="8.3816900">
<time>2017-08-08T14:24:24.393Z</time>
</trkpt>
<trkpt lat="45.7231000" lon="8.3817500">
<time>2017-08-08T14:24:24.393Z</time>
</trkpt>
<trkpt lat="45.7230600" lon="8.3818100">
<time>2017-08-08T14:24:24.393Z</time>
</trkpt>
<trkpt lat="45.7230500" lon="8.3818500">
<time>2017-08-08T14:24:24.393Z</time>
</trkpt>
<trkpt lat="45.7230000" lon="8.3819300">
<time>2017-08-08T14:24:24.393Z</time>
</trkpt>
<trkpt lat="45.7230400" lon="8.3821200">
<time>2017-08-08T14:24:24.393Z</time>
</trkpt>
<trkpt lat="45.7231300" lon="8.3822500">
<time>2017-08-08T14:24:24.393Z</time>
</trkpt>
<trkpt lat="45.7232100" lon="8.3823100">
<time>2017-08-08T14:24:24.393Z</time>
</trkpt>
<trkpt lat="45.7233100" lon="8.3826700">
<time>2017-08-08T14:24:24.394Z</time>
</trkpt>
<trkpt lat="45.7233700" lon="8.3828900">
<time>2017-08-08T14:24:24.394Z</time>
</trkpt>
<trkpt lat="45.7233700" lon="8.3829200">
<time>2017-08-08T14:24:24.394Z</time>
</trkpt>
<trkpt lat="45.7233800" lon="8.3830100">
<time>2017-08-08T14:24:24.394Z</time>
</trkpt>
<trkpt lat="45.7233700" lon="8.3830500">
<time>2017-08-08T14:24:24.394Z</time>
</trkpt>
<trkpt lat="45.7234000" lon="8.3831600">
<time>2017-08-08T14:24:24.394Z</time>
</trkpt>
<trkpt lat="45.7234100" lon="8.3831800">
<time>2017-08-08T14:24:24.394Z</time>
</trkpt>
<trkpt lat="45.7234600" lon="8.3832400">
<time>2017-08-08T14:24:24.394Z</time>
</trkpt>
<trkpt lat="45.7235000" lon="8.3832900">
<time>2017-08-08T14:24:24.395Z</time>
</trkpt>
<trkpt lat="45.7235000" lon="8.3833200">
<time>2017-08-08T14:24:24.395Z</time>
</trkpt>
<trkpt lat="45.7234800" lon="8.3834000">
<time>2017-08-08T14:24:24.395Z</time>
</trkpt>
<trkpt lat="45.7233800" lon="8.3834100">
<time>2017-08-08T14:24:24.395Z</time>
</trkpt>
<trkpt lat="45.7233200" lon="8.3833500">
<time>2017-08-08T14:24:24.395Z</time>
</trkpt>
<trkpt lat="45.7232400" lon="8.3831900">
<time>2017-08-08T14:24:24.395Z</time>
</trkpt>
<trkpt lat="45.7230800" lon="8.3829500">
<time>2017-08-08T14:24:24.395Z</time>
</trkpt>
<trkpt lat="45.7229600" lon="8.3828300">
<time>2017-08-08T14:24:24.395Z</time>
</trkpt>
<trkpt lat="45.7229100" lon="8.3827800">
<time>2017-08-08T14:24:24.395Z</time>
</trkpt>
<trkpt lat="45.7228100" lon="8.3827300">
<time>2017-08-08T14:24:24.395Z</time>
</trkpt>
<trkpt lat="45.7227300" lon="8.3827100">
<time>2017-08-08T14:24:24.396Z</time>
</trkpt>
<trkpt lat="45.7226500" lon="8.3827400">
<time>2017-08-08T14:24:24.396Z</time>
</trkpt>
<trkpt lat="45.7224400" lon="8.3827700">
<time>2017-08-08T14:24:24.396Z</time>
</trkpt>
<trkpt lat="45.7224000" lon="8.3827600">
<time>2017-08-08T14:24:24.396Z</time>
</trkpt>
<trkpt lat="45.7224100" lon="8.3827200">
<time>2017-08-08T14:24:24.396Z</time>
</trkpt>
<trkpt lat="45.7224000" lon="8.3826200">
<time>2017-08-08T14:24:24.396Z</time>
</trkpt>
<trkpt lat="45.7224100" lon="8.3824900">
<time>2017-08-08T14:24:24.396Z</time>
</trkpt>
<trkpt lat="45.7224200" lon="8.3824700">
<time>2017-08-08T14:24:24.396Z</time>
</trkpt>
<trkpt lat="45.7223900" lon="8.3823700">
<time>2017-08-08T14:24:24.396Z</time>
</trkpt>
<trkpt lat="45.7223800" lon="8.3823500">
<time>2017-08-08T14:24:24.397Z</time>
</trkpt>
<trkpt lat="45.7223700" lon="8.3823200">
<time>2017-08-08T14:24:24.397Z</time>
</trkpt>
<trkpt lat="45.7223600" lon="8.3823100">
<time>2017-08-08T14:24:24.397Z</time>
</trkpt>
<trkpt lat="45.7223300" lon="8.3823000">
<time>2017-08-08T14:24:24.397Z</time>
</trkpt>
<trkpt lat="45.7223300" lon="8.3823000">
<time>2017-08-08T14:24:24.397Z</time>
</trkpt>
<trkpt lat="45.7223300" lon="8.3823800">
<time>2017-08-08T14:24:24.397Z</time>
</trkpt>
<trkpt lat="45.7223200" lon="8.3823800">
<time>2017-08-08T14:24:24.397Z</time>
</trkpt>
<trkpt lat="45.7223100" lon="8.3824000">
<time>2017-08-08T14:24:24.397Z</time>
</trkpt>
<trkpt lat="45.7223100" lon="8.3824200">
<time>2017-08-08T14:24:24.397Z</time>
</trkpt>
<trkpt lat="45.7223100" lon="8.3824500">
<time>2017-08-08T14:24:24.398Z</time>
</trkpt>
<trkpt lat="45.7222900" lon="8.3825400">
<time>2017-08-08T14:24:24.398Z</time>
</trkpt>
<trkpt lat="45.7222600" lon="8.3825900">
<time>2017-08-08T14:24:24.398Z</time>
</trkpt>
<trkpt lat="45.7222300" lon="8.3826900">
<time>2017-08-08T14:24:24.398Z</time>
</trkpt>
<trkpt lat="45.7220500" lon="8.3828700">
<time>2017-08-08T14:24:24.398Z</time>
</trkpt>
<trkpt lat="45.7219700" lon="8.3829100">
<time>2017-08-08T14:24:24.398Z</time>
</trkpt>
<trkpt lat="45.7217900" lon="8.3828200">
<time>2017-08-08T14:24:24.398Z</time>
</trkpt>
<trkpt lat="45.7217000" lon="8.3828000">
<time>2017-08-08T14:24:24.398Z</time>
</trkpt>
<trkpt lat="45.7217000" lon="8.3826600">
<time>2017-08-08T14:24:24.398Z</time>
</trkpt>
<trkpt lat="45.7217400" lon="8.3826400">
<time>2017-08-08T14:24:24.398Z</time>
</trkpt>
<trkpt lat="45.7218300" lon="8.3826400">
<time>2017-08-08T14:24:24.399Z</time>
</trkpt>
<trkpt lat="45.7218500" lon="8.3826600">
<time>2017-08-08T14:24:24.399Z</time>
</trkpt>
<trkpt lat="45.7219500" lon="8.3826200">
<time>2017-08-08T14:24:24.399Z</time>
</trkpt>
<trkpt lat="45.7219900" lon="8.3825900">
<time>2017-08-08T14:24:24.399Z</time>
</trkpt>
<trkpt lat="45.7220000" lon="8.3824300">
<time>2017-08-08T14:24:24.399Z</time>
</trkpt>
<trkpt lat="45.7218500" lon="8.3824600">
<time>2017-08-08T14:24:24.399Z</time>
</trkpt>
<trkpt lat="45.7217700" lon="8.3824000">
<time>2017-08-08T14:24:24.399Z</time>
</trkpt>
<trkpt lat="45.7217100" lon="8.3823000">
<time>2017-08-08T14:24:24.399Z</time>
</trkpt>
<trkpt lat="45.7216400" lon="8.3823200">
<time>2017-08-08T14:24:24.399Z</time>
</trkpt>
<trkpt lat="45.7215700" lon="8.3824100">
<time>2017-08-08T14:24:24.399Z</time>
</trkpt>
<trkpt lat="45.7213800" lon="8.3825600">
<time>2017-08-08T14:24:24.400Z</time>
</trkpt>
<trkpt lat="45.7213700" lon="8.3825700">
<time>2017-08-08T14:24:24.400Z</time>
</trkpt>
<trkpt lat="45.7211900" lon="8.3825700">
<time>2017-08-08T14:24:24.400Z</time>
</trkpt>
<trkpt lat="45.7210500" lon="8.3823700">
<time>2017-08-08T14:24:24.400Z</time>
</trkpt>
<trkpt lat="45.7209800" lon="8.3822800">
<time>2017-08-08T14:24:24.400Z</time>
</trkpt>
<trkpt lat="45.7209400" lon="8.3822300">
<time>2017-08-08T14:24:24.400Z</time>
</trkpt>
<trkpt lat="45.7208300" lon="8.3821500">
<time>2017-08-08T14:24:24.400Z</time>
</trkpt>
<trkpt lat="45.7208200" lon="8.3821200">
<time>2017-08-08T14:24:24.400Z</time>
</trkpt>
<trkpt lat="45.7208400" lon="8.3820600">
<time>2017-08-08T14:24:24.400Z</time>
</trkpt>
<trkpt lat="45.7208500" lon="8.3820400">
<time>2017-08-08T14:24:24.400Z</time>
</trkpt>
<trkpt lat="45.7210100" lon="8.3821200">
<time>2017-08-08T14:24:24.400Z</time>
</trkpt>
<trkpt lat="45.7210600" lon="8.3821600">
<time>2017-08-08T14:24:24.401Z</time>
</trkpt>
<trkpt lat="45.7211900" lon="8.3822200">
<time>2017-08-08T14:24:24.401Z</time>
</trkpt>
<trkpt lat="45.7213300" lon="8.3821300">
<time>2017-08-08T14:24:24.401Z</time>
</trkpt>
<trkpt lat="45.7213500" lon="8.3820500">
<time>2017-08-08T14:24:24.401Z</time>
</trkpt>
<trkpt lat="45.7213500" lon="8.3820100">
<time>2017-08-08T14:24:24.401Z</time>
</trkpt>
<trkpt lat="45.7213300" lon="8.3818400">
<time>2017-08-08T14:24:24.401Z</time>
</trkpt>
<trkpt lat="45.7213200" lon="8.3816900">
<time>2017-08-08T14:24:24.401Z</time>
</trkpt>
<trkpt lat="45.7213300" lon="8.3816100">
<time>2017-08-08T14:24:24.401Z</time>
</trkpt>
<trkpt lat="45.7213000" lon="8.3814500">
<time>2017-08-08T14:24:24.401Z</time>
</trkpt>
<trkpt lat="45.7213200" lon="8.3813800">
<time>2017-08-08T14:24:24.401Z</time>
</trkpt>
<trkpt lat="45.7212700" lon="8.3812800">
<time>2017-08-08T14:24:24.402Z</time>
</trkpt>
<trkpt lat="45.7212000" lon="8.3811400">
<time>2017-08-08T14:24:24.402Z</time>
</trkpt>
<trkpt lat="45.7212200" lon="8.3810700">
<time>2017-08-08T14:24:24.402Z</time>
</trkpt>
<trkpt lat="45.7212600" lon="8.3810600">
<time>2017-08-08T14:24:24.402Z</time>
</trkpt>
<trkpt lat="45.7212300" lon="8.3809900">
<time>2017-08-08T14:24:24.402Z</time>
</trkpt>
<trkpt lat="45.7211900" lon="8.3808400">
<time>2017-08-08T14:24:24.402Z</time>
</trkpt>
<trkpt lat="45.7211600" lon="8.3808200">
<time>2017-08-08T14:24:24.402Z</time>
</trkpt>
<trkpt lat="45.7211600" lon="8.3807400">
<time>2017-08-08T14:24:24.402Z</time>
</trkpt>
<trkpt lat="45.7211300" lon="8.3806500">
<time>2017-08-08T14:24:24.402Z</time>
</trkpt>
<trkpt lat="45.7211100" lon="8.3806400">
<time>2017-08-08T14:24:24.402Z</time>
</trkpt>
<trkpt lat="45.7211500" lon="8.3806200">
<time>2017-08-08T14:24:24.403Z</time>
</trkpt>
<trkpt lat="45.7212500" lon="8.3806000">
<time>2017-08-08T14:24:24.403Z</time>
</trkpt>
<trkpt lat="45.7213300" lon="8.3805500">
<time>2017-08-08T14:24:24.403Z</time>
</trkpt>
<trkpt lat="45.7214200" lon="8.3805700">
<time>2017-08-08T14:24:24.403Z</time>
</trkpt>
<trkpt lat="45.7215000" lon="8.3805800">
<time>2017-08-08T14:24:24.403Z</time>
</trkpt>
<trkpt lat="45.7216300" lon="8.3804300">
<time>2017-08-08T14:24:24.403Z</time>
</trkpt>
<trkpt lat="45.7216600" lon="8.3802900">
<time>2017-08-08T14:24:24.403Z</time>
</trkpt>
<trkpt lat="45.7216100" lon="8.3801100">
<time>2017-08-08T14:24:24.403Z</time>
</trkpt>
<trkpt lat="45.7215400" lon="8.3800300">
<time>2017-08-08T14:24:24.403Z</time>
</trkpt>
<trkpt lat="45.7214900" lon="8.3799400">
<time>2017-08-08T14:24:24.403Z</time>
</trkpt>
<trkpt lat="45.7214800" lon="8.3799000">
<time>2017-08-08T14:24:24.403Z</time>
</trkpt>
<trkpt lat="45.7214300" lon="8.3798600">
<time>2017-08-08T14:24:24.404Z</time>
</trkpt>
<trkpt lat="45.7213600" lon="8.3797100">
<time>2017-08-08T14:24:24.404Z</time>
</trkpt>
<trkpt lat="45.7212700" lon="8.3795800">
<time>2017-08-08T14:24:24.404Z</time>
</trkpt>
<trkpt lat="45.7211800" lon="8.3794500">
<time>2017-08-08T14:24:24.404Z</time>
</trkpt>
<trkpt lat="45.7211400" lon="8.3794000">
<time>2017-08-08T14:24:24.404Z</time>
</trkpt>
<trkpt lat="45.7210500" lon="8.3792900">
<time>2017-08-08T14:24:24.404Z</time>
</trkpt>
<trkpt lat="45.7209600" lon="8.3792000">
<time>2017-08-08T14:24:24.404Z</time>
</trkpt>
<trkpt lat="45.7208800" lon="8.3790900">
<time>2017-08-08T14:24:24.404Z</time>
</trkpt>
<trkpt lat="45.7208200" lon="8.3790400">
<time>2017-08-08T14:24:24.405Z</time>
</trkpt>
<trkpt lat="45.7207600" lon="8.3790200">
<time>2017-08-08T14:24:24.405Z</time>
</trkpt>
<trkpt lat="45.7206800" lon="8.3790600">
<time>2017-08-08T14:24:24.405Z</time>
</trkpt>
<trkpt lat="45.7206200" lon="8.3791900">
<time>2017-08-08T14:24:24.405Z</time>
</trkpt>
<trkpt lat="45.7205600" lon="8.3792800">
<time>2017-08-08T14:24:24.405Z</time>
</trkpt>
<trkpt lat="45.7205000" lon="8.3793400">
<time>2017-08-08T14:24:24.405Z</time>
</trkpt>
<trkpt lat="45.7204700" lon="8.3793600">
<time>2017-08-08T14:24:24.405Z</time>
</trkpt>
<trkpt lat="45.7203500" lon="8.3793900">
<time>2017-08-08T14:24:24.405Z</time>
</trkpt>
<trkpt lat="45.7202800" lon="8.3794200">
<time>2017-08-08T14:24:24.405Z</time>
</trkpt>
<trkpt lat="45.7202700" lon="8.3794100">
<time>2017-08-08T14:24:24.405Z</time>
</trkpt>
<trkpt lat="45.7201800" lon="8.3793900">
<time>2017-08-08T14:24:24.406Z</time>
</trkpt>
<trkpt lat="45.7200500" lon="8.3793700">
<time>2017-08-08T14:24:24.406Z</time>
</trkpt>
<trkpt lat="45.7199300" lon="8.3795000">
<time>2017-08-08T14:24:24.406Z</time>
</trkpt>
<trkpt lat="45.7198800" lon="8.3796600">
<time>2017-08-08T14:24:24.406Z</time>
</trkpt>
<trkpt lat="45.7198000" lon="8.3798300">
<time>2017-08-08T14:24:24.406Z</time>
</trkpt>
<trkpt lat="45.7196300" lon="8.3799800">
<time>2017-08-08T14:24:24.406Z</time>
</trkpt>
<trkpt lat="45.7195700" lon="8.3800100">
<time>2017-08-08T14:24:24.406Z</time>
</trkpt>
<trkpt lat="45.7195000" lon="8.3800200">
<time>2017-08-08T14:24:24.406Z</time>
</trkpt>
<trkpt lat="45.7194400" lon="8.3800200">
<time>2017-08-08T14:24:24.406Z</time>
</trkpt>
<trkpt lat="45.7194300" lon="8.3800200">
<time>2017-08-08T14:24:24.406Z</time>
</trkpt>
<trkpt lat="45.7193800" lon="8.3800100">
<time>2017-08-08T14:24:24.406Z</time>
</trkpt>
<trkpt lat="45.7193600" lon="8.3800100">
<time>2017-08-08T14:24:24.407Z</time>
</trkpt>
<trkpt lat="45.7192700" lon="8.3800000">
<time>2017-08-08T14:24:24.407Z</time>
</trkpt>
<trkpt lat="45.7191600" lon="8.3799800">
<time>2017-08-08T14:24:24.407Z</time>
</trkpt>
<trkpt lat="45.7190900" lon="8.3799800">
<time>2017-08-08T14:24:24.407Z</time>
</trkpt>
<trkpt lat="45.7189700" lon="8.3799600">
<time>2017-08-08T14:24:24.407Z</time>
</trkpt>
<trkpt lat="45.7188000" lon="8.3799300">
<time>2017-08-08T14:24:24.407Z</time>
</trkpt>
<trkpt lat="45.7187400" lon="8.3799300">
<time>2017-08-08T14:24:24.407Z</time>
</trkpt>
<trkpt lat="45.7186300" lon="8.3799500">
<time>2017-08-08T14:24:24.407Z</time>
</trkpt>
<trkpt lat="45.7183900" lon="8.3799900">
<time>2017-08-08T14:24:24.407Z</time>
</trkpt>
<trkpt lat="45.7183800" lon="8.3800000">
<time>2017-08-08T14:24:24.407Z</time>
</trkpt>
<trkpt lat="45.7183500" lon="8.3800200">
<time>2017-08-08T14:24:24.408Z</time>
</trkpt>
<trkpt lat="45.7181700" lon="8.3801200">
<time>2017-08-08T14:24:24.408Z</time>
</trkpt>
<trkpt lat="45.7180300" lon="8.3802100">
<time>2017-08-08T14:24:24.408Z</time>
</trkpt>
<trkpt lat="45.7178700" lon="8.3803600">
<time>2017-08-08T14:24:24.408Z</time>
</trkpt>
<trkpt lat="45.7178300" lon="8.3803900">
<time>2017-08-08T14:24:24.408Z</time>
</trkpt>
<trkpt lat="45.7177300" lon="8.3804700">
<time>2017-08-08T14:24:24.408Z</time>
</trkpt>
<trkpt lat="45.7177100" lon="8.3805000">
<time>2017-08-08T14:24:24.408Z</time>
</trkpt>
<trkpt lat="45.7176800" lon="8.3805400">
<time>2017-08-08T14:24:24.408Z</time>
</trkpt>
<trkpt lat="45.7175700" lon="8.3806800">
<time>2017-08-08T14:24:24.408Z</time>
</trkpt>
<trkpt lat="45.7174800" lon="8.3807100">
<time>2017-08-08T14:24:24.408Z</time>
</trkpt>
<trkpt lat="45.7174600" lon="8.3806900">
<time>2017-08-08T14:24:24.408Z</time>
</trkpt>
<trkpt lat="45.7174400" lon="8.3806700">
<time>2017-08-08T14:24:24.409Z</time>
</trkpt>
<trkpt lat="45.7174800" lon="8.3804300">
<time>2017-08-08T14:24:24.409Z</time>
</trkpt>
<trkpt lat="45.7174800" lon="8.3803800">
<time>2017-08-08T14:24:24.409Z</time>
</trkpt>
<trkpt lat="45.7174200" lon="8.3802200">
<time>2017-08-08T14:24:24.409Z</time>
</trkpt>
<trkpt lat="45.7173000" lon="8.3800800">
<time>2017-08-08T14:24:24.409Z</time>
</trkpt>
<trkpt lat="45.7172100" lon="8.3799100">
<time>2017-08-08T14:24:24.409Z</time>
</trkpt>
<trkpt lat="45.7171800" lon="8.3798600">
<time>2017-08-08T14:24:24.409Z</time>
</trkpt>
<trkpt lat="45.7171000" lon="8.3797700">
<time>2017-08-08T14:24:24.409Z</time>
</trkpt>
<trkpt lat="45.7170500" lon="8.3797500">
<time>2017-08-08T14:24:24.409Z</time>
</trkpt>
<trkpt lat="45.7169700" lon="8.3797800">
<time>2017-08-08T14:24:24.409Z</time>
</trkpt>
<trkpt lat="45.7168700" lon="8.3798100">
<time>2017-08-08T14:24:24.410Z</time>
</trkpt>
<trkpt lat="45.7167600" lon="8.3798500">
<time>2017-08-08T14:24:24.410Z</time>
</trkpt>
<trkpt lat="45.7166800" lon="8.3799200">
<time>2017-08-08T14:24:24.410Z</time>
</trkpt>
<trkpt lat="45.7166300" lon="8.3799800">
<time>2017-08-08T14:24:24.410Z</time>
</trkpt>
<trkpt lat="45.7166200" lon="8.3799900">
<time>2017-08-08T14:24:24.410Z</time>
</trkpt>
<trkpt lat="45.7166100" lon="8.3800100">
<time>2017-08-08T14:24:24.410Z</time>
</trkpt>
<trkpt lat="45.7165900" lon="8.3800200">
<time>2017-08-08T14:24:24.410Z</time>
</trkpt>
<trkpt lat="45.7164500" lon="8.3801800">
<time>2017-08-08T14:24:24.410Z</time>
</trkpt>
<trkpt lat="45.7163900" lon="8.3802300">
<time>2017-08-08T14:24:24.410Z</time>
</trkpt>
<trkpt lat="45.7163000" lon="8.3803400">
<time>2017-08-08T14:24:24.410Z</time>
</trkpt>
<trkpt lat="45.7162000" lon="8.3804100">
<time>2017-08-08T14:24:24.411Z</time>
</trkpt>
<trkpt lat="45.7160800" lon="8.3805900">
<time>2017-08-08T14:24:24.411Z</time>
</trkpt>
<trkpt lat="45.7160000" lon="8.3807200">
<time>2017-08-08T14:24:24.411Z</time>
</trkpt>
<trkpt lat="45.7159200" lon="8.3806500">
<time>2017-08-08T14:24:24.411Z</time>
</trkpt>
<trkpt lat="45.7159800" lon="8.3804800">
<time>2017-08-08T14:24:24.411Z</time>
</trkpt>
<trkpt lat="45.7159800" lon="8.3803000">
<time>2017-08-08T14:24:24.411Z</time>
</trkpt>
<trkpt lat="45.7159800" lon="8.3802900">
<time>2017-08-08T14:24:24.411Z</time>
</trkpt>
<trkpt lat="45.7159200" lon="8.3801700">
<time>2017-08-08T14:24:24.411Z</time>
</trkpt>
<trkpt lat="45.7158600" lon="8.3802600">
<time>2017-08-08T14:24:24.411Z</time>
</trkpt>
<trkpt lat="45.7157900" lon="8.3803300">
<time>2017-08-08T14:24:24.411Z</time>
</trkpt>
<trkpt lat="45.7156700" lon="8.3804400">
<time>2017-08-08T14:24:24.411Z</time>
</trkpt>
<trkpt lat="45.7155800" lon="8.3804800">
<time>2017-08-08T14:24:24.412Z</time>
</trkpt>
<trkpt lat="45.7154800" lon="8.3805400">
<time>2017-08-08T14:24:24.412Z</time>
</trkpt>
<trkpt lat="45.7154800" lon="8.3805500">
<time>2017-08-08T14:24:24.412Z</time>
</trkpt>
<trkpt lat="45.7154100" lon="8.3806100">
<time>2017-08-08T14:24:24.412Z</time>
</trkpt>
<trkpt lat="45.7153900" lon="8.3806200">
<time>2017-08-08T14:24:24.412Z</time>
</trkpt>
<trkpt lat="45.7152800" lon="8.3806600">
<time>2017-08-08T14:24:24.412Z</time>
</trkpt>
<trkpt lat="45.7151500" lon="8.3808000">
<time>2017-08-08T14:24:24.412Z</time>
</trkpt>
<trkpt lat="45.7150900" lon="8.3809400">
<time>2017-08-08T14:24:24.412Z</time>
</trkpt>
<trkpt lat="45.7150400" lon="8.3810500">
<time>2017-08-08T14:24:24.412Z</time>
</trkpt>
<trkpt lat="45.7149500" lon="8.3811300">
<time>2017-08-08T14:24:24.413Z</time>
</trkpt>
<trkpt lat="45.7148300" lon="8.3812100">
<time>2017-08-08T14:24:24.413Z</time>
</trkpt>
<trkpt lat="45.7147200" lon="8.3813000">
<time>2017-08-08T14:24:24.413Z</time>
</trkpt>
<trkpt lat="45.7147000" lon="8.3813500">
<time>2017-08-08T14:24:24.413Z</time>
</trkpt>
<trkpt lat="45.7146800" lon="8.3813600">
<time>2017-08-08T14:24:24.413Z</time>
</trkpt>
<trkpt lat="45.7146500" lon="8.3814100">
<time>2017-08-08T14:24:24.413Z</time>
</trkpt>
<trkpt lat="45.7146200" lon="8.3814600">
<time>2017-08-08T14:24:24.413Z</time>
</trkpt>
<trkpt lat="45.7146100" lon="8.3815200">
<time>2017-08-08T14:24:24.413Z</time>
</trkpt>
<trkpt lat="45.7145900" lon="8.3815600">
<time>2017-08-08T14:24:24.413Z</time>
</trkpt>
<trkpt lat="45.7145200" lon="8.3816800">
<time>2017-08-08T14:24:24.413Z</time>
</trkpt>
<trkpt lat="45.7144400" lon="8.3817900">
<time>2017-08-08T14:24:24.414Z</time>
</trkpt>
<trkpt lat="45.7144300" lon="8.3818000">
<time>2017-08-08T14:24:24.414Z</time>
</trkpt>
<trkpt lat="45.7144200" lon="8.3818200">
<time>2017-08-08T14:24:24.414Z</time>
</trkpt>
<trkpt lat="45.7143300" lon="8.3818900">
<time>2017-08-08T14:24:24.414Z</time>
</trkpt>
<trkpt lat="45.7142800" lon="8.3819000">
<time>2017-08-08T14:24:24.414Z</time>
</trkpt>
<trkpt lat="45.7140600" lon="8.3819300">
<time>2017-08-08T14:24:24.415Z</time>
</trkpt>
<trkpt lat="45.7139700" lon="8.3819400">
<time>2017-08-08T14:24:24.415Z</time>
</trkpt>
<trkpt lat="45.7139700" lon="8.3819600">
<time>2017-08-08T14:24:24.415Z</time>
</trkpt>
<trkpt lat="45.7138700" lon="8.3819800">
<time>2017-08-08T14:24:24.415Z</time>
</trkpt>
<trkpt lat="45.7137200" lon="8.3820100">
<time>2017-08-08T14:24:24.415Z</time>
</trkpt>
<trkpt lat="45.7135800" lon="8.3820500">
<time>2017-08-08T14:24:24.415Z</time>
</trkpt>
<trkpt lat="45.7135600" lon="8.3820600">
<time>2017-08-08T14:24:24.415Z</time>
</trkpt>
<trkpt lat="45.7135300" lon="8.3820700">
<time>2017-08-08T14:24:24.415Z</time>
</trkpt>
<trkpt lat="45.7134400" lon="8.3821100">
<time>2017-08-08T14:24:24.415Z</time>
</trkpt>
<trkpt lat="45.7132900" lon="8.3821600">
<time>2017-08-08T14:24:24.415Z</time>
</trkpt>
<trkpt lat="45.7131400" lon="8.3822000">
<time>2017-08-08T14:24:24.416Z</time>
</trkpt>
<trkpt lat="45.7131200" lon="8.3822100">
<time>2017-08-08T14:24:24.416Z</time>
</trkpt>
<trkpt lat="45.7130900" lon="8.3822900">
<time>2017-08-08T14:24:24.416Z</time>
</trkpt>
<trkpt lat="45.7131000" lon="8.3824300">
<time>2017-08-08T14:24:24.416Z</time>
</trkpt>
<trkpt lat="45.7130700" lon="8.3825800">
<time>2017-08-08T14:24:24.416Z</time>
</trkpt>
<trkpt lat="45.7130000" lon="8.3827500">
<time>2017-08-08T14:24:24.416Z</time>
</trkpt>
<trkpt lat="45.7129600" lon="8.3829300">
<time>2017-08-08T14:24:24.416Z</time>
</trkpt>
<trkpt lat="45.7129500" lon="8.3830000">
<time>2017-08-08T14:24:24.416Z</time>
</trkpt>
<trkpt lat="45.7129800" lon="8.3832100">
<time>2017-08-08T14:24:24.416Z</time>
</trkpt>
<trkpt lat="45.7129700" lon="8.3834300">
<time>2017-08-08T14:24:24.416Z</time>
</trkpt>
<trkpt lat="45.7129900" lon="8.3835900">
<time>2017-08-08T14:24:24.417Z</time>
</trkpt>
<trkpt lat="45.7130200" lon="8.3837300">
<time>2017-08-08T14:24:24.417Z</time>
</trkpt>
<trkpt lat="45.7130500" lon="8.3839200">
<time>2017-08-08T14:24:24.417Z</time>
</trkpt>
<trkpt lat="45.7130500" lon="8.3839500">
<time>2017-08-08T14:24:24.417Z</time>
</trkpt>
<trkpt lat="45.7130300" lon="8.3839800">
<time>2017-08-08T14:24:24.417Z</time>
</trkpt>
<trkpt lat="45.7129900" lon="8.3841500">
<time>2017-08-08T14:24:24.417Z</time>
</trkpt>
<trkpt lat="45.7129900" lon="8.3842400">
<time>2017-08-08T14:24:24.417Z</time>
</trkpt>
<trkpt lat="45.7129800" lon="8.3842900">
<time>2017-08-08T14:24:24.417Z</time>
</trkpt>
<trkpt lat="45.7129700" lon="8.3843900">
<time>2017-08-08T14:24:24.417Z</time>
</trkpt>
<trkpt lat="45.7129900" lon="8.3845200">
<time>2017-08-08T14:24:24.417Z</time>
</trkpt>
<trkpt lat="45.7130500" lon="8.3846100">
<time>2017-08-08T14:24:24.418Z</time>
</trkpt>
<trkpt lat="45.7130700" lon="8.3847200">
<time>2017-08-08T14:24:24.418Z</time>
</trkpt>
<trkpt lat="45.7130400" lon="8.3847300">
<time>2017-08-08T14:24:24.418Z</time>
</trkpt>
<trkpt lat="45.7130200" lon="8.3847400">
<time>2017-08-08T14:24:24.418Z</time>
</trkpt>
<trkpt lat="45.7129200" lon="8.3848000">
<time>2017-08-08T14:24:24.418Z</time>
</trkpt>
<trkpt lat="45.7128600" lon="8.3848600">
<time>2017-08-08T14:24:24.418Z</time>
</trkpt>
<trkpt lat="45.7128600" lon="8.3849500">
<time>2017-08-08T14:24:24.418Z</time>
</trkpt>
<trkpt lat="45.7128700" lon="8.3850300">
<time>2017-08-08T14:24:24.418Z</time>
</trkpt>
<trkpt lat="45.7128700" lon="8.3851400">
<time>2017-08-08T14:24:24.418Z</time>
</trkpt>
<trkpt lat="45.7128100" lon="8.3852500">
<time>2017-08-08T14:24:24.418Z</time>
</trkpt>
<trkpt lat="45.7128100" lon="8.3854100">
<time>2017-08-08T14:24:24.418Z</time>
</trkpt>
<trkpt lat="45.7127600" lon="8.3856100">
<time>2017-08-08T14:24:24.419Z</time>
</trkpt>
<trkpt lat="45.7126800" lon="8.3859100">
<time>2017-08-08T14:24:24.419Z</time>
</trkpt>
<trkpt lat="45.7126200" lon="8.3861300">
<time>2017-08-08T14:24:24.419Z</time>
</trkpt>
<trkpt lat="45.7126400" lon="8.3862100">
<time>2017-08-08T14:24:24.419Z</time>
</trkpt>
<trkpt lat="45.7126800" lon="8.3863700">
<time>2017-08-08T14:24:24.419Z</time>
</trkpt>
<trkpt lat="45.7127200" lon="8.3864700">
<time>2017-08-08T14:24:24.419Z</time>
</trkpt>
<trkpt lat="45.7127300" lon="8.3865200">
<time>2017-08-08T14:24:24.419Z</time>
</trkpt>
<trkpt lat="45.7127700" lon="8.3865800">
<time>2017-08-08T14:24:24.419Z</time>
</trkpt>
<trkpt lat="45.7128000" lon="8.3866500">
<time>2017-08-08T14:24:24.420Z</time>
</trkpt>
<trkpt lat="45.7128300" lon="8.3867100">
<time>2017-08-08T14:24:24.420Z</time>
</trkpt>
<trkpt lat="45.7128500" lon="8.3867800">
<time>2017-08-08T14:24:24.420Z</time>
</trkpt>
<trkpt lat="45.7129800" lon="8.3869100">
<time>2017-08-08T14:24:24.420Z</time>
</trkpt>
<trkpt lat="45.7130800" lon="8.3870500">
<time>2017-08-08T14:24:24.420Z</time>
</trkpt>
<trkpt lat="45.7130800" lon="8.3871000">
<time>2017-08-08T14:24:24.420Z</time>
</trkpt>
<trkpt lat="45.7130100" lon="8.3873700">
<time>2017-08-08T14:24:24.420Z</time>
</trkpt>
<trkpt lat="45.7129900" lon="8.3874300">
<time>2017-08-08T14:24:24.420Z</time>
</trkpt>
<trkpt lat="45.7128900" lon="8.3877100">
<time>2017-08-08T14:24:24.420Z</time>
</trkpt>
<trkpt lat="45.7128500" lon="8.3878200">
<time>2017-08-08T14:24:24.420Z</time>
</trkpt>
<trkpt lat="45.7127300" lon="8.3881700">
<time>2017-08-08T14:24:24.421Z</time>
</trkpt>
<trkpt lat="45.7126800" lon="8.3885300">
<time>2017-08-08T14:24:24.421Z</time>
</trkpt>
<trkpt lat="45.7125600" lon="8.3886700">
<time>2017-08-08T14:24:24.421Z</time>
</trkpt>
<trkpt lat="45.7125500" lon="8.3887000">
<time>2017-08-08T14:24:24.421Z</time>
</trkpt>
<trkpt lat="45.7125400" lon="8.3887600">
<time>2017-08-08T14:24:24.421Z</time>
</trkpt>
<trkpt lat="45.7124500" lon="8.3892300">
<time>2017-08-08T14:24:24.421Z</time>
</trkpt>
<trkpt lat="45.7123700" lon="8.3894100">
<time>2017-08-08T14:24:24.421Z</time>
</trkpt>
<trkpt lat="45.7123300" lon="8.3895500">
<time>2017-08-08T14:24:24.421Z</time>
</trkpt>
<trkpt lat="45.7122800" lon="8.3899000">
<time>2017-08-08T14:24:24.421Z</time>
</trkpt>
<trkpt lat="45.7122300" lon="8.3900500">
<time>2017-08-08T14:24:24.421Z</time>
</trkpt>
<trkpt lat="45.7122000" lon="8.3902800">
<time>2017-08-08T14:24:24.422Z</time>
</trkpt>
<trkpt lat="45.7122000" lon="8.3905400">
<time>2017-08-08T14:24:24.422Z</time>
</trkpt>
<trkpt lat="45.7121900" lon="8.3908300">
<time>2017-08-08T14:24:24.422Z</time>
</trkpt>
<trkpt lat="45.7121400" lon="8.3909400">
<time>2017-08-08T14:24:24.422Z</time>
</trkpt>
<trkpt lat="45.7118700" lon="8.3912600">
<time>2017-08-08T14:24:24.422Z</time>
</trkpt>
<trkpt lat="45.7118400" lon="8.3913000">
<time>2017-08-08T14:24:24.422Z</time>
</trkpt>
<trkpt lat="45.7116900" lon="8.3914400">
<time>2017-08-08T14:24:24.422Z</time>
</trkpt>
<trkpt lat="45.7116900" lon="8.3915200">
<time>2017-08-08T14:24:24.422Z</time>
</trkpt>
<trkpt lat="45.7117600" lon="8.3918000">
<time>2017-08-08T14:24:24.422Z</time>
</trkpt>
<trkpt lat="45.7117800" lon="8.3921000">
<time>2017-08-08T14:24:24.422Z</time>
</trkpt>
<trkpt lat="45.7117500" lon="8.3923800">
<time>2017-08-08T14:24:24.423Z</time>
</trkpt>
<trkpt lat="45.7117100" lon="8.3925800">
<time>2017-08-08T14:24:24.423Z</time>
</trkpt>
<trkpt lat="45.7115700" lon="8.3928400">
<time>2017-08-08T14:24:24.423Z</time>
</trkpt>
<trkpt lat="45.7114300" lon="8.3930000">
<time>2017-08-08T14:24:24.423Z</time>
</trkpt>
<trkpt lat="45.7112700" lon="8.3933000">
<time>2017-08-08T14:24:24.423Z</time>
</trkpt>
<trkpt lat="45.7112100" lon="8.3934400">
<time>2017-08-08T14:24:24.423Z</time>
</trkpt>
<trkpt lat="45.7110800" lon="8.3939000">
<time>2017-08-08T14:24:24.423Z</time>
</trkpt>
<trkpt lat="45.7108900" lon="8.3941700">
<time>2017-08-08T14:24:24.423Z</time>
</trkpt>
<trkpt lat="45.7107900" lon="8.3941600">
<time>2017-08-08T14:24:24.423Z</time>
</trkpt>
<trkpt lat="45.7106300" lon="8.3941100">
<time>2017-08-08T14:24:24.423Z</time>
</trkpt>
<trkpt lat="45.7105400" lon="8.3941000">
<time>2017-08-08T14:24:24.424Z</time>
</trkpt>
<trkpt lat="45.7105200" lon="8.3943100">
<time>2017-08-08T14:24:24.424Z</time>
</trkpt>
<trkpt lat="45.7106600" lon="8.3945000">
<time>2017-08-08T14:24:24.424Z</time>
</trkpt>
<trkpt lat="45.7106400" lon="8.3949100">
<time>2017-08-08T14:24:24.424Z</time>
</trkpt>
<trkpt lat="45.7104900" lon="8.3950700">
<time>2017-08-08T14:24:24.424Z</time>
</trkpt>
<trkpt lat="45.7103300" lon="8.3951800">
<time>2017-08-08T14:24:24.424Z</time>
</trkpt>
<trkpt lat="45.7100900" lon="8.3953300">
<time>2017-08-08T14:24:24.424Z</time>
</trkpt>
<trkpt lat="45.7100500" lon="8.3953700">
<time>2017-08-08T14:24:24.424Z</time>
</trkpt>
<trkpt lat="45.7099400" lon="8.3955200">
<time>2017-08-08T14:24:24.424Z</time>
</trkpt>
<trkpt lat="45.7099200" lon="8.3956400">
<time>2017-08-08T14:24:24.425Z</time>
</trkpt>
<trkpt lat="45.7100000" lon="8.3958600">
<time>2017-08-08T14:24:24.425Z</time>
</trkpt>
<trkpt lat="45.7104000" lon="8.3959500">
<time>2017-08-08T14:24:24.425Z</time>
</trkpt>
<trkpt lat="45.7105900" lon="8.3958500">
<time>2017-08-08T14:24:24.425Z</time>
</trkpt>
<trkpt lat="45.7106300" lon="8.3958300">
<time>2017-08-08T14:24:24.425Z</time>
</trkpt>
<trkpt lat="45.7110800" lon="8.3958600">
<time>2017-08-08T14:24:24.425Z</time>
</trkpt>
<trkpt lat="45.7113600" lon="8.3960400">
<time>2017-08-08T14:24:24.425Z</time>
</trkpt>
<trkpt lat="45.7114800" lon="8.3961600">
<time>2017-08-08T14:24:24.425Z</time>
</trkpt>
<trkpt lat="45.7115200" lon="8.3961900">
<time>2017-08-08T14:24:24.425Z</time>
</trkpt>
<trkpt lat="45.7116400" lon="8.3963700">
<time>2017-08-08T14:24:24.426Z</time>
</trkpt>
<trkpt lat="45.7119300" lon="8.3967900">
<time>2017-08-08T14:24:24.426Z</time>
</trkpt>
<trkpt lat="45.7120400" lon="8.3967800">
<time>2017-08-08T14:24:24.426Z</time>
</trkpt>
<trkpt lat="45.7122400" lon="8.3971000">
<time>2017-08-08T14:24:24.426Z</time>
</trkpt>
<trkpt lat="45.7122400" lon="8.3974500">
<time>2017-08-08T14:24:24.426Z</time>
</trkpt>
<trkpt lat="45.7123800" lon="8.3977400">
<time>2017-08-08T14:24:24.426Z</time>
</trkpt>
<trkpt lat="45.7124900" lon="8.3977000">
<time>2017-08-08T14:24:24.426Z</time>
</trkpt>
<trkpt lat="45.7127700" lon="8.3975900">
<time>2017-08-08T14:24:24.426Z</time>
</trkpt>
<trkpt lat="45.7129200" lon="8.3976200">
<time>2017-08-08T14:24:24.426Z</time>
</trkpt>
<trkpt lat="45.7130800" lon="8.3978700">
<time>2017-08-08T14:24:24.426Z</time>
</trkpt>
<trkpt lat="45.7131100" lon="8.3984500">
<time>2017-08-08T14:24:24.426Z</time>
</trkpt>
<trkpt lat="45.7130700" lon="8.3989000">
<time>2017-08-08T14:24:24.427Z</time>
</trkpt>
<trkpt lat="45.7129400" lon="8.3991900">
<time>2017-08-08T14:24:24.427Z</time>
</trkpt>
<trkpt lat="45.7128100" lon="8.3992900">
<time>2017-08-08T14:24:24.427Z</time>
</trkpt>
<trkpt lat="45.7124800" lon="8.3993800">
<time>2017-08-08T14:24:24.427Z</time>
</trkpt>
<trkpt lat="45.7123400" lon="8.3995200">
<time>2017-08-08T14:24:24.427Z</time>
</trkpt>
<trkpt lat="45.7120800" lon="8.3995600">
<time>2017-08-08T14:24:24.427Z</time>
</trkpt>
<trkpt lat="45.7118300" lon="8.3996100">
<time>2017-08-08T14:24:24.427Z</time>
</trkpt>
<trkpt lat="45.7118600" lon="8.4000300">
<time>2017-08-08T14:24:24.427Z</time>
</trkpt>
<trkpt lat="45.7118600" lon="8.4002900">
<time>2017-08-08T14:24:24.427Z</time>
</trkpt>
<trkpt lat="45.7118800" lon="8.4005200">
<time>2017-08-08T14:24:24.427Z</time>
</trkpt>
<trkpt lat="45.7119900" lon="8.4006900">
<time>2017-08-08T14:24:24.428Z</time>
</trkpt>
<trkpt lat="45.7121500" lon="8.4008900">
<time>2017-08-08T14:24:24.428Z</time>
</trkpt>
<trkpt lat="45.7122500" lon="8.4011000">
<time>2017-08-08T14:24:24.428Z</time>
</trkpt>
<trkpt lat="45.7123000" lon="8.4012400">
<time>2017-08-08T14:24:24.428Z</time>
</trkpt>
<trkpt lat="45.7122900" lon="8.4015400">
<time>2017-08-08T14:24:24.428Z</time>
</trkpt>
<trkpt lat="45.7122400" lon="8.4016800">
<time>2017-08-08T14:24:24.428Z</time>
</trkpt>
<trkpt lat="45.7122200" lon="8.4017500">
<time>2017-08-08T14:24:24.428Z</time>
</trkpt>
<trkpt lat="45.7121100" lon="8.4020100">
<time>2017-08-08T14:24:24.428Z</time>
</trkpt>
<trkpt lat="45.7120300" lon="8.4024100">
<time>2017-08-08T14:24:24.428Z</time>
</trkpt>
<trkpt lat="45.7121400" lon="8.4034600">
<time>2017-08-08T14:24:24.428Z</time>
</trkpt>
<trkpt lat="45.7121200" lon="8.4039400">
<time>2017-08-08T14:24:24.428Z</time>
</trkpt>
<trkpt lat="45.7120600" lon="8.4040600">
<time>2017-08-08T14:24:24.429Z</time>
</trkpt>
<trkpt lat="45.7119800" lon="8.4041600">
<time>2017-08-08T14:24:24.429Z</time>
</trkpt>
<trkpt lat="45.7117100" lon="8.4045000">
<time>2017-08-08T14:24:24.429Z</time>
</trkpt>
<trkpt lat="45.7115200" lon="8.4044600">
<time>2017-08-08T14:24:24.429Z</time>
</trkpt>
<trkpt lat="45.7112500" lon="8.4042800">
<time>2017-08-08T14:24:24.429Z</time>
</trkpt>
<trkpt lat="45.7109300" lon="8.4044400">
<time>2017-08-08T14:24:24.429Z</time>
</trkpt>
<trkpt lat="45.7107600" lon="8.4046500">
<time>2017-08-08T14:24:24.429Z</time>
</trkpt>
<trkpt lat="45.7104500" lon="8.4048100">
<time>2017-08-08T14:24:24.429Z</time>
</trkpt>
<trkpt lat="45.7103000" lon="8.4049800">
<time>2017-08-08T14:24:24.429Z</time>
</trkpt>
<trkpt lat="45.7102100" lon="8.4051100">
<time>2017-08-08T14:24:24.430Z</time>
</trkpt>
<trkpt lat="45.7099400" lon="8.4053500">
<time>2017-08-08T14:24:24.430Z</time>
</trkpt>
<trkpt lat="45.7097200" lon="8.4054100">
<time>2017-08-08T14:24:24.430Z</time>
</trkpt>
<trkpt lat="45.7095500" lon="8.4054500">
<time>2017-08-08T14:24:24.430Z</time>
</trkpt>
<trkpt lat="45.7095000" lon="8.4054800">
<time>2017-08-08T14:24:24.430Z</time>
</trkpt>
<trkpt lat="45.7093300" lon="8.4056200">
<time>2017-08-08T14:24:24.430Z</time>
</trkpt>
<trkpt lat="45.7092700" lon="8.4057200">
<time>2017-08-08T14:24:24.430Z</time>
</trkpt>
<trkpt lat="45.7091100" lon="8.4058000">
<time>2017-08-08T14:24:24.430Z</time>
</trkpt>
<trkpt lat="45.7089000" lon="8.4057500">
<time>2017-08-08T14:24:24.430Z</time>
</trkpt>
<trkpt lat="45.7086500" lon="8.4057800">
<time>2017-08-08T14:24:24.430Z</time>
</trkpt>
<trkpt lat="45.7085300" lon="8.4058100">
<time>2017-08-08T14:24:24.430Z</time>
</trkpt>
<trkpt lat="45.7084800" lon="8.4060000">
<time>2017-08-08T14:24:24.431Z</time>
</trkpt>
<trkpt lat="45.7084800" lon="8.4061900">
<time>2017-08-08T14:24:24.431Z</time>
</trkpt>
<trkpt lat="45.7084800" lon="8.4065600">
<time>2017-08-08T14:24:24.431Z</time>
</trkpt>
<trkpt lat="45.7084200" lon="8.4067100">
<time>2017-08-08T14:24:24.431Z</time>
</trkpt>
<trkpt lat="45.7083700" lon="8.4068400">
<time>2017-08-08T14:24:24.431Z</time>
</trkpt>
<trkpt lat="45.7082500" lon="8.4071900">
<time>2017-08-08T14:24:24.431Z</time>
</trkpt>
<trkpt lat="45.7081000" lon="8.4074200">
<time>2017-08-08T14:24:24.431Z</time>
</trkpt>
<trkpt lat="45.7080000" lon="8.4077100">
<time>2017-08-08T14:24:24.431Z</time>
</trkpt>
<trkpt lat="45.7080000" lon="8.4078000">
<time>2017-08-08T14:24:24.431Z</time>
</trkpt>
<trkpt lat="45.7080200" lon="8.4079900">
<time>2017-08-08T14:24:24.431Z</time>
</trkpt>
<trkpt lat="45.7080000" lon="8.4082000">
<time>2017-08-08T14:24:24.432Z</time>
</trkpt>
<trkpt lat="45.7079300" lon="8.4083300">
<time>2017-08-08T14:24:24.432Z</time>
</trkpt>
<trkpt lat="45.7078500" lon="8.4087200">
<time>2017-08-08T14:24:24.432Z</time>
</trkpt>
<trkpt lat="45.7080600" lon="8.4090000">
<time>2017-08-08T14:24:24.432Z</time>
</trkpt>
<trkpt lat="45.7081800" lon="8.4090700">
<time>2017-08-08T14:24:24.432Z</time>
</trkpt>
<trkpt lat="45.7080800" lon="8.4091700">
<time>2017-08-08T14:24:24.432Z</time>
</trkpt>
<trkpt lat="45.7079900" lon="8.4092500">
<time>2017-08-08T14:24:24.432Z</time>
</trkpt>
<trkpt lat="45.7079100" lon="8.4093300">
<time>2017-08-08T14:24:24.432Z</time>
</trkpt>
<trkpt lat="45.7078100" lon="8.4093600">
<time>2017-08-08T14:24:24.432Z</time>
</trkpt>
<trkpt lat="45.7076000" lon="8.4093700">
<time>2017-08-08T14:24:24.432Z</time>
</trkpt>
<trkpt lat="45.7073300" lon="8.4095600">
<time>2017-08-08T14:24:24.432Z</time>
</trkpt>
<trkpt lat="45.7072800" lon="8.4096000">
<time>2017-08-08T14:24:24.433Z</time>
</trkpt>
<trkpt lat="45.7072100" lon="8.4097500">
<time>2017-08-08T14:24:24.433Z</time>
</trkpt>
<trkpt lat="45.7075600" lon="8.4099500">
<time>2017-08-08T14:24:24.433Z</time>
</trkpt>
<trkpt lat="45.7076500" lon="8.4100300">
<time>2017-08-08T14:24:24.433Z</time>
</trkpt>
<trkpt lat="45.7073600" lon="8.4101400">
<time>2017-08-08T14:24:24.433Z</time>
</trkpt>
<trkpt lat="45.7075100" lon="8.4103300">
<time>2017-08-08T14:24:24.433Z</time>
</trkpt>
<trkpt lat="45.7076000" lon="8.4103900">
<time>2017-08-08T14:24:24.433Z</time>
</trkpt>
<trkpt lat="45.7075600" lon="8.4104200">
<time>2017-08-08T14:24:24.433Z</time>
</trkpt>
<trkpt lat="45.7075200" lon="8.4104500">
<time>2017-08-08T14:24:24.433Z</time>
</trkpt>
<trkpt lat="45.7073400" lon="8.4106000">
<time>2017-08-08T14:24:24.433Z</time>
</trkpt>
<trkpt lat="45.7071200" lon="8.4108600">
<time>2017-08-08T14:24:24.434Z</time>
</trkpt>
<trkpt lat="45.7068600" lon="8.4109000">
<time>2017-08-08T14:24:24.434Z</time>
</trkpt>
<trkpt lat="45.7066000" lon="8.4108700">
<time>2017-08-08T14:24:24.434Z</time>
</trkpt>
<trkpt lat="45.7064400" lon="8.4108700">
<time>2017-08-08T14:24:24.434Z</time>
</trkpt>
<trkpt lat="45.7063900" lon="8.4109800">
<time>2017-08-08T14:24:24.434Z</time>
</trkpt>
<trkpt lat="45.7063300" lon="8.4112800">
<time>2017-08-08T14:24:24.434Z</time>
</trkpt>
<trkpt lat="45.7065200" lon="8.4112000">
<time>2017-08-08T14:24:24.434Z</time>
</trkpt>
<trkpt lat="45.7065800" lon="8.4111000">
<time>2017-08-08T14:24:24.434Z</time>
</trkpt>
<trkpt lat="45.7066900" lon="8.4112900">
<time>2017-08-08T14:24:24.435Z</time>
</trkpt>
<trkpt lat="45.7066900" lon="8.4113400">
<time>2017-08-08T14:24:24.435Z</time>
</trkpt>
<trkpt lat="45.7066200" lon="8.4115300">
<time>2017-08-08T14:24:24.435Z</time>
</trkpt>
<trkpt lat="45.7065800" lon="8.4115800">
<time>2017-08-08T14:24:24.435Z</time>
</trkpt>
<trkpt lat="45.7065000" lon="8.4119000">
<time>2017-08-08T14:24:24.435Z</time>
</trkpt>
<trkpt lat="45.7063200" lon="8.4122100">
<time>2017-08-08T14:24:24.435Z</time>
</trkpt>
<trkpt lat="45.7061500" lon="8.4124500">
<time>2017-08-08T14:24:24.435Z</time>
</trkpt>
<trkpt lat="45.7059300" lon="8.4127700">
<time>2017-08-08T14:24:24.435Z</time>
</trkpt>
<trkpt lat="45.7057200" lon="8.4130300">
<time>2017-08-08T14:24:24.435Z</time>
</trkpt>
<trkpt lat="45.7055700" lon="8.4131500">
<time>2017-08-08T14:24:24.435Z</time>
</trkpt>
<trkpt lat="45.7054100" lon="8.4132300">
<time>2017-08-08T14:24:24.436Z</time>
</trkpt>
<trkpt lat="45.7052400" lon="8.4132300">
<time>2017-08-08T14:24:24.436Z</time>
</trkpt>
<trkpt lat="45.7051300" lon="8.4132100">
<time>2017-08-08T14:24:24.436Z</time>
</trkpt>
<trkpt lat="45.7050300" lon="8.4131900">
<time>2017-08-08T14:24:24.436Z</time>
</trkpt>
<trkpt lat="45.7049200" lon="8.4131700">
<time>2017-08-08T14:24:24.436Z</time>
</trkpt>
<trkpt lat="45.7047900" lon="8.4132400">
<time>2017-08-08T14:24:24.436Z</time>
</trkpt>
<trkpt lat="45.7046300" lon="8.4133700">
<time>2017-08-08T14:24:24.436Z</time>
</trkpt>
<trkpt lat="45.7043000" lon="8.4136300">
<time>2017-08-08T14:24:24.436Z</time>
</trkpt>
<trkpt lat="45.7041500" lon="8.4137600">
<time>2017-08-08T14:24:24.436Z</time>
</trkpt>
<trkpt lat="45.7040700" lon="8.4139000">
<time>2017-08-08T14:24:24.436Z</time>
</trkpt>
<trkpt lat="45.7039100" lon="8.4140900">
<time>2017-08-08T14:24:24.436Z</time>
</trkpt>
<trkpt lat="45.7035500" lon="8.4142900">
<time>2017-08-08T14:24:24.437Z</time>
</trkpt>
<trkpt lat="45.7034300" lon="8.4143200">
<time>2017-08-08T14:24:24.437Z</time>
</trkpt>
<trkpt lat="45.7031800" lon="8.4142900">
<time>2017-08-08T14:24:24.437Z</time>
</trkpt>
<trkpt lat="45.7029400" lon="8.4144900">
<time>2017-08-08T14:24:24.437Z</time>
</trkpt>
<trkpt lat="45.7025700" lon="8.4157800">
<time>2017-08-08T14:24:24.437Z</time>
</trkpt>
<trkpt lat="45.7024500" lon="8.4162100">
<time>2017-08-08T14:24:24.437Z</time>
</trkpt>
<trkpt lat="45.7023400" lon="8.4165700">
<time>2017-08-08T14:24:24.437Z</time>
</trkpt>
<trkpt lat="45.7021400" lon="8.4168700">
<time>2017-08-08T14:24:24.437Z</time>
</trkpt>
<trkpt lat="45.7017900" lon="8.4168100">
<time>2017-08-08T14:24:24.437Z</time>
</trkpt>
<trkpt lat="45.7008200" lon="8.4167000">
<time>2017-08-08T14:24:24.437Z</time>
</trkpt>
<trkpt lat="45.6998900" lon="8.4166600">
<time>2017-08-08T14:24:24.438Z</time>
</trkpt>
<trkpt lat="45.6995500" lon="8.4167400">
<time>2017-08-08T14:24:24.438Z</time>
</trkpt>
<trkpt lat="45.6992500" lon="8.4170300">
<time>2017-08-08T14:24:24.438Z</time>
</trkpt>
<trkpt lat="45.6987000" lon="8.4175100">
<time>2017-08-08T14:24:24.438Z</time>
</trkpt>
<trkpt lat="45.6985200" lon="8.4176800">
<time>2017-08-08T14:24:24.438Z</time>
</trkpt>
<trkpt lat="45.6984000" lon="8.4180200">
<time>2017-08-08T14:24:24.438Z</time>
</trkpt>
<trkpt lat="45.6983700" lon="8.4181100">
<time>2017-08-08T14:24:24.438Z</time>
</trkpt>
<trkpt lat="45.6977100" lon="8.4193100">
<time>2017-08-08T14:24:24.438Z</time>
</trkpt>
<trkpt lat="45.6975500" lon="8.4196700">
<time>2017-08-08T14:24:24.438Z</time>
</trkpt>
<trkpt lat="45.6974900" lon="8.4196700">
<time>2017-08-08T14:24:24.438Z</time>
</trkpt>
<trkpt lat="45.6972900" lon="8.4196900">
<time>2017-08-08T14:24:24.438Z</time>
</trkpt>
<trkpt lat="45.6969300" lon="8.4196500">
<time>2017-08-08T14:24:24.439Z</time>
</trkpt>
<trkpt lat="45.6967400" lon="8.4196200">
<time>2017-08-08T14:24:24.439Z</time>
</trkpt>
<trkpt lat="45.6965300" lon="8.4195800">
<time>2017-08-08T14:24:24.439Z</time>
</trkpt>
<trkpt lat="45.6961800" lon="8.4195300">
<time>2017-08-08T14:24:24.439Z</time>
</trkpt>
<trkpt lat="45.6958400" lon="8.4194300">
<time>2017-08-08T14:24:24.439Z</time>
</trkpt>
<trkpt lat="45.6954100" lon="8.4193800">
<time>2017-08-08T14:24:24.439Z</time>
</trkpt>
<trkpt lat="45.6953600" lon="8.4193900">
<time>2017-08-08T14:24:24.439Z</time>
</trkpt>
<trkpt lat="45.6952600" lon="8.4194300">
<time>2017-08-08T14:24:24.439Z</time>
</trkpt>
<trkpt lat="45.6949700" lon="8.4194500">
<time>2017-08-08T14:24:24.439Z</time>
</trkpt>
<trkpt lat="45.6948200" lon="8.4193100">
<time>2017-08-08T14:24:24.439Z</time>
</trkpt>
<trkpt lat="45.6943600" lon="8.4189200">
<time>2017-08-08T14:24:24.440Z</time>
</trkpt>
<trkpt lat="45.6940500" lon="8.4188000">
<time>2017-08-08T14:24:24.440Z</time>
</trkpt>
<trkpt lat="45.6937800" lon="8.4187400">
<time>2017-08-08T14:24:24.440Z</time>
</trkpt>
<trkpt lat="45.6933700" lon="8.4186400">
<time>2017-08-08T14:24:24.440Z</time>
</trkpt>
<trkpt lat="45.6928900" lon="8.4185300">
<time>2017-08-08T14:24:24.440Z</time>
</trkpt>
<trkpt lat="45.6928300" lon="8.4185000">
<time>2017-08-08T14:24:24.440Z</time>
</trkpt>
<trkpt lat="45.6928700" lon="8.4184800">
<time>2017-08-08T14:24:24.440Z</time>
</trkpt>
<trkpt lat="45.6930500" lon="8.4184500">
<time>2017-08-08T14:24:24.440Z</time>
</trkpt>
<trkpt lat="45.6931100" lon="8.4183000">
<time>2017-08-08T14:24:24.440Z</time>
</trkpt>
<trkpt lat="45.6931300" lon="8.4180600">
<time>2017-08-08T14:24:24.440Z</time>
</trkpt>
<trkpt lat="45.6929500" lon="8.4178000">
<time>2017-08-08T14:24:24.441Z</time>
</trkpt>
<trkpt lat="45.6927300" lon="8.4174900">
<time>2017-08-08T14:24:24.441Z</time>
</trkpt>
<trkpt lat="45.6926300" lon="8.4172700">
<time>2017-08-08T14:24:24.441Z</time>
</trkpt>
<trkpt lat="45.6924200" lon="8.4166600">
<time>2017-08-08T14:24:24.441Z</time>
</trkpt>
<trkpt lat="45.6921900" lon="8.4157100">
<time>2017-08-08T14:24:24.441Z</time>
</trkpt>
<trkpt lat="45.6921900" lon="8.4150300">
<time>2017-08-08T14:24:24.441Z</time>
</trkpt>
<trkpt lat="45.6919000" lon="8.4152000">
<time>2017-08-08T14:24:24.441Z</time>
</trkpt>
<trkpt lat="45.6916900" lon="8.4145500">
<time>2017-08-08T14:24:24.441Z</time>
</trkpt>
<trkpt lat="45.6916600" lon="8.4144400">
<time>2017-08-08T14:24:24.441Z</time>
</trkpt>
<trkpt lat="45.6914400" lon="8.4137400">
<time>2017-08-08T14:24:24.441Z</time>
</trkpt>
<trkpt lat="45.6913900" lon="8.4135900">
<time>2017-08-08T14:24:24.441Z</time>
</trkpt>
<trkpt lat="45.6913900" lon="8.4134200">
<time>2017-08-08T14:24:24.442Z</time>
</trkpt>
<trkpt lat="45.6917500" lon="8.4131700">
<time>2017-08-08T14:24:24.442Z</time>
</trkpt>
<trkpt lat="45.6915900" lon="8.4126100">
<time>2017-08-08T14:24:24.442Z</time>
</trkpt>
<trkpt lat="45.6915200" lon="8.4124900">
<time>2017-08-08T14:24:24.442Z</time>
</trkpt>
<trkpt lat="45.6911300" lon="8.4124900">
<time>2017-08-08T14:24:24.442Z</time>
</trkpt>
<trkpt lat="45.6908400" lon="8.4126200">
<time>2017-08-08T14:24:24.442Z</time>
</trkpt>
<trkpt lat="45.6905300" lon="8.4127500">
<time>2017-08-08T14:24:24.442Z</time>
</trkpt>
<trkpt lat="45.6905000" lon="8.4126600">
<time>2017-08-08T14:24:24.442Z</time>
</trkpt>
<trkpt lat="45.6903000" lon="8.4120500">
<time>2017-08-08T14:24:24.442Z</time>
</trkpt>
<trkpt lat="45.6902300" lon="8.4115000">
<time>2017-08-08T14:24:24.442Z</time>
</trkpt>
<trkpt lat="45.6902800" lon="8.4109900">
<time>2017-08-08T14:24:24.443Z</time>
</trkpt>
<trkpt lat="45.6901500" lon="8.4106700">
<time>2017-08-08T14:24:24.443Z</time>
</trkpt>
<trkpt lat="45.6900900" lon="8.4102600">
<time>2017-08-08T14:24:24.443Z</time>
</trkpt>
<trkpt lat="45.6899900" lon="8.4100500">
<time>2017-08-08T14:24:24.443Z</time>
</trkpt>
<trkpt lat="45.6896700" lon="8.4097500">
<time>2017-08-08T14:24:24.443Z</time>
</trkpt>
<trkpt lat="45.6893600" lon="8.4093300">
<time>2017-08-08T14:24:24.443Z</time>
</trkpt>
<trkpt lat="45.6891800" lon="8.4087300">
<time>2017-08-08T14:24:24.443Z</time>
</trkpt>
<trkpt lat="45.6891600" lon="8.4085700">
<time>2017-08-08T14:24:24.443Z</time>
</trkpt>
<trkpt lat="45.6891600" lon="8.4080900">
<time>2017-08-08T14:24:24.443Z</time>
</trkpt>
<trkpt lat="45.6891500" lon="8.4079800">
<time>2017-08-08T14:24:24.443Z</time>
</trkpt>
<trkpt lat="45.6891200" lon="8.4077100">
<time>2017-08-08T14:24:24.443Z</time>
</trkpt>
<trkpt lat="45.6891200" lon="8.4075800">
<time>2017-08-08T14:24:24.444Z</time>
</trkpt>
<trkpt lat="45.6891300" lon="8.4072800">
<time>2017-08-08T14:24:24.444Z</time>
</trkpt>
<trkpt lat="45.6890400" lon="8.4068900">
<time>2017-08-08T14:24:24.444Z</time>
</trkpt>
<trkpt lat="45.6889100" lon="8.4065900">
<time>2017-08-08T14:24:24.444Z</time>
</trkpt>
<trkpt lat="45.6890500" lon="8.4064500">
<time>2017-08-08T14:24:24.444Z</time>
</trkpt>
<trkpt lat="45.6890900" lon="8.4064100">
<time>2017-08-08T14:24:24.444Z</time>
</trkpt>
<trkpt lat="45.6890700" lon="8.4061900">
<time>2017-08-08T14:24:24.444Z</time>
</trkpt>
<trkpt lat="45.6889200" lon="8.4058200">
<time>2017-08-08T14:24:24.444Z</time>
</trkpt>
<trkpt lat="45.6888900" lon="8.4057700">
<time>2017-08-08T14:24:24.445Z</time>
</trkpt>
<trkpt lat="45.6888400" lon="8.4056500">
<time>2017-08-08T14:24:24.445Z</time>
</trkpt>
<trkpt lat="45.6887600" lon="8.4054800">
<time>2017-08-08T14:24:24.445Z</time>
</trkpt>
<trkpt lat="45.6887300" lon="8.4054300">
<time>2017-08-08T14:24:24.445Z</time>
</trkpt>
<trkpt lat="45.6884700" lon="8.4053300">
<time>2017-08-08T14:24:24.445Z</time>
</trkpt>
<trkpt lat="45.6883300" lon="8.4055500">
<time>2017-08-08T14:24:24.445Z</time>
</trkpt>
<trkpt lat="45.6881000" lon="8.4058400">
<time>2017-08-08T14:24:24.445Z</time>
</trkpt>
<trkpt lat="45.6877800" lon="8.4060100">
<time>2017-08-08T14:24:24.445Z</time>
</trkpt>
<trkpt lat="45.6876900" lon="8.4060100">
<time>2017-08-08T14:24:24.445Z</time>
</trkpt>
<trkpt lat="45.6876300" lon="8.4057900">
<time>2017-08-08T14:24:24.445Z</time>
</trkpt>
<trkpt lat="45.6876100" lon="8.4056600">
<time>2017-08-08T14:24:24.446Z</time>
</trkpt>
<trkpt lat="45.6875800" lon="8.4055800">
<time>2017-08-08T14:24:24.446Z</time>
</trkpt>
<trkpt lat="45.6875300" lon="8.4054700">
<time>2017-08-08T14:24:24.446Z</time>
</trkpt>
<trkpt lat="45.6873200" lon="8.4048100">
<time>2017-08-08T14:24:24.446Z</time>
</trkpt>
<trkpt lat="45.6873000" lon="8.4046600">
<time>2017-08-08T14:24:24.446Z</time>
</trkpt>
<trkpt lat="45.6869700" lon="8.4045400">
<time>2017-08-08T14:24:24.446Z</time>
</trkpt>
<trkpt lat="45.6867300" lon="8.4047100">
<time>2017-08-08T14:24:24.446Z</time>
</trkpt>
<trkpt lat="45.6865600" lon="8.4047700">
<time>2017-08-08T14:24:24.446Z</time>
</trkpt>
<trkpt lat="45.6862900" lon="8.4048400">
<time>2017-08-08T14:24:24.446Z</time>
</trkpt>
<trkpt lat="45.6860900" lon="8.4046800">
<time>2017-08-08T14:24:24.447Z</time>
</trkpt>
<trkpt lat="45.6859200" lon="8.4043200">
<time>2017-08-08T14:24:24.447Z</time>
</trkpt>
<trkpt lat="45.6857900" lon="8.4041800">
<time>2017-08-08T14:24:24.447Z</time>
</trkpt>
<trkpt lat="45.6855500" lon="8.4039000">
<time>2017-08-08T14:24:24.447Z</time>
</trkpt>
<trkpt lat="45.6853800" lon="8.4034300">
<time>2017-08-08T14:24:24.447Z</time>
</trkpt>
<trkpt lat="45.6853400" lon="8.4032800">
<time>2017-08-08T14:24:24.447Z</time>
</trkpt>
<trkpt lat="45.6854000" lon="8.4024400">
<time>2017-08-08T14:24:24.447Z</time>
</trkpt>
<trkpt lat="45.6854600" lon="8.4020300">
<time>2017-08-08T14:24:24.447Z</time>
</trkpt>
<trkpt lat="45.6852700" lon="8.4018400">
<time>2017-08-08T14:24:24.447Z</time>
</trkpt>
<trkpt lat="45.6848000" lon="8.4018200">
<time>2017-08-08T14:24:24.448Z</time>
</trkpt>
<trkpt lat="45.6843600" lon="8.4017300">
<time>2017-08-08T14:24:24.448Z</time>
</trkpt>
<trkpt lat="45.6841000" lon="8.4014800">
<time>2017-08-08T14:24:24.448Z</time>
</trkpt>
<trkpt lat="45.6839600" lon="8.4012100">
<time>2017-08-08T14:24:24.448Z</time>
</trkpt>
<trkpt lat="45.6837200" lon="8.4010000">
<time>2017-08-08T14:24:24.448Z</time>
</trkpt>
<trkpt lat="45.6832800" lon="8.4008400">
<time>2017-08-08T14:24:24.448Z</time>
</trkpt>
<trkpt lat="45.6832000" lon="8.4008000">
<time>2017-08-08T14:24:24.448Z</time>
</trkpt>
<trkpt lat="45.6833000" lon="8.4005900">
<time>2017-08-08T14:24:24.448Z</time>
</trkpt>
<trkpt lat="45.6836800" lon="8.3995000">
<time>2017-08-08T14:24:24.448Z</time>
</trkpt>
<trkpt lat="45.6839100" lon="8.3974100">
<time>2017-08-08T14:24:24.448Z</time>
</trkpt>
<trkpt lat="45.6841300" lon="8.3966400">
<time>2017-08-08T14:24:24.449Z</time>
</trkpt>
<trkpt lat="45.6843600" lon="8.3963600">
<time>2017-08-08T14:24:24.449Z</time>
</trkpt>
<trkpt lat="45.6856200" lon="8.3948100">
<time>2017-08-08T14:24:24.449Z</time>
</trkpt>
<trkpt lat="45.6858600" lon="8.3945300">
<time>2017-08-08T14:24:24.449Z</time>
</trkpt>
<trkpt lat="45.6863900" lon="8.3937900">
<time>2017-08-08T14:24:24.449Z</time>
</trkpt>
<trkpt lat="45.6865500" lon="8.3932600">
<time>2017-08-08T14:24:24.449Z</time>
</trkpt>
<trkpt lat="45.6865700" lon="8.3931100">
<time>2017-08-08T14:24:24.449Z</time>
</trkpt>
<trkpt lat="45.6867300" lon="8.3919900">
<time>2017-08-08T14:24:24.449Z</time>
</trkpt>
<trkpt lat="45.6867300" lon="8.3918500">
<time>2017-08-08T14:24:24.449Z</time>
</trkpt>
<trkpt lat="45.6866100" lon="8.3903700">
<time>2017-08-08T14:24:24.449Z</time>
</trkpt>
<trkpt lat="45.6867400" lon="8.3896200">
<time>2017-08-08T14:24:24.449Z</time>
</trkpt>
<trkpt lat="45.6867300" lon="8.3894100">
<time>2017-08-08T14:24:24.450Z</time>
</trkpt>
<trkpt lat="45.6866600" lon="8.3890500">
<time>2017-08-08T14:24:24.450Z</time>
</trkpt>
<trkpt lat="45.6866000" lon="8.3888300">
<time>2017-08-08T14:24:24.450Z</time>
</trkpt>
<trkpt lat="45.6865200" lon="8.3885300">
<time>2017-08-08T14:24:24.450Z</time>
</trkpt>
<trkpt lat="45.6865200" lon="8.3883800">
<time>2017-08-08T14:24:24.450Z</time>
</trkpt>
<trkpt lat="45.6865300" lon="8.3882000">
<time>2017-08-08T14:24:24.450Z</time>
</trkpt>
<trkpt lat="45.6865400" lon="8.3880300">
<time>2017-08-08T14:24:24.450Z</time>
</trkpt>
<trkpt lat="45.6864700" lon="8.3875600">
<time>2017-08-08T14:24:24.450Z</time>
</trkpt>
<trkpt lat="45.6863500" lon="8.3874300">
<time>2017-08-08T14:24:24.450Z</time>
</trkpt>
<trkpt lat="45.6862500" lon="8.3873200">
<time>2017-08-08T14:24:24.450Z</time>
</trkpt>
<trkpt lat="45.6861700" lon="8.3872100">
<time>2017-08-08T14:24:24.451Z</time>
</trkpt>
<trkpt lat="45.6861000" lon="8.3871100">
<time>2017-08-08T14:24:24.451Z</time>
</trkpt>
<trkpt lat="45.6860000" lon="8.3867800">
<time>2017-08-08T14:24:24.451Z</time>
</trkpt>
<trkpt lat="45.6859900" lon="8.3867000">
<time>2017-08-08T14:24:24.451Z</time>
</trkpt>
<trkpt lat="45.6859500" lon="8.3864700">
<time>2017-08-08T14:24:24.451Z</time>
</trkpt>
<trkpt lat="45.6859200" lon="8.3863400">
<time>2017-08-08T14:24:24.451Z</time>
</trkpt>
<trkpt lat="45.6858800" lon="8.3861300">
<time>2017-08-08T14:24:24.451Z</time>
</trkpt>
<trkpt lat="45.6857900" lon="8.3860500">
<time>2017-08-08T14:24:24.451Z</time>
</trkpt>
<trkpt lat="45.6854700" lon="8.3861500">
<time>2017-08-08T14:24:24.451Z</time>
</trkpt>
<trkpt lat="45.6853100" lon="8.3858000">
<time>2017-08-08T14:24:24.451Z</time>
</trkpt>
<trkpt lat="45.6852900" lon="8.3857300">
<time>2017-08-08T14:24:24.451Z</time>
</trkpt>
<trkpt lat="45.6852100" lon="8.3857400">
<time>2017-08-08T14:24:24.452Z</time>
</trkpt>
<trkpt lat="45.6848900" lon="8.3859700">
<time>2017-08-08T14:24:24.452Z</time>
</trkpt>
<trkpt lat="45.6848000" lon="8.3860300">
<time>2017-08-08T14:24:24.452Z</time>
</trkpt>
<trkpt lat="45.6846100" lon="8.3861200">
<time>2017-08-08T14:24:24.452Z</time>
</trkpt>
<trkpt lat="45.6842700" lon="8.3862500">
<time>2017-08-08T14:24:24.452Z</time>
</trkpt>
<trkpt lat="45.6842300" lon="8.3862700">
<time>2017-08-08T14:24:24.452Z</time>
</trkpt>
<trkpt lat="45.6840600" lon="8.3863500">
<time>2017-08-08T14:24:24.452Z</time>
</trkpt>
<trkpt lat="45.6837500" lon="8.3864100">
<time>2017-08-08T14:24:24.452Z</time>
</trkpt>
<trkpt lat="45.6836400" lon="8.3864600">
<time>2017-08-08T14:24:24.452Z</time>
</trkpt>
<trkpt lat="45.6835500" lon="8.3865200">
<time>2017-08-08T14:24:24.452Z</time>
</trkpt>
<trkpt lat="45.6832800" lon="8.3867600">
<time>2017-08-08T14:24:24.453Z</time>
</trkpt>
<trkpt lat="45.6831000" lon="8.3870300">
<time>2017-08-08T14:24:24.453Z</time>
</trkpt>
<trkpt lat="45.6830700" lon="8.3870800">
<time>2017-08-08T14:24:24.453Z</time>
</trkpt>
<trkpt lat="45.6829200" lon="8.3873300">
<time>2017-08-08T14:24:24.453Z</time>
</trkpt>
<trkpt lat="45.6827100" lon="8.3873500">
<time>2017-08-08T14:24:24.453Z</time>
</trkpt>
<trkpt lat="45.6822200" lon="8.3870500">
<time>2017-08-08T14:24:24.453Z</time>
</trkpt>
<trkpt lat="45.6820100" lon="8.3868400">
<time>2017-08-08T14:24:24.453Z</time>
</trkpt>
<trkpt lat="45.6817900" lon="8.3867200">
<time>2017-08-08T14:24:24.453Z</time>
</trkpt>
<trkpt lat="45.6813900" lon="8.3866700">
<time>2017-08-08T14:24:24.453Z</time>
</trkpt>
<trkpt lat="45.6811800" lon="8.3866800">
<time>2017-08-08T14:24:24.453Z</time>
</trkpt>
<trkpt lat="45.6809400" lon="8.3867000">
<time>2017-08-08T14:24:24.453Z</time>
</trkpt>
<trkpt lat="45.6807700" lon="8.3867000">
<time>2017-08-08T14:24:24.454Z</time>
</trkpt>
<trkpt lat="45.6806000" lon="8.3867000">
<time>2017-08-08T14:24:24.454Z</time>
</trkpt>
<trkpt lat="45.6804800" lon="8.3866800">
<time>2017-08-08T14:24:24.454Z</time>
</trkpt>
<trkpt lat="45.6803800" lon="8.3866700">
<time>2017-08-08T14:24:24.454Z</time>
</trkpt>
<trkpt lat="45.6799300" lon="8.3867300">
<time>2017-08-08T14:24:24.454Z</time>
</trkpt>
<trkpt lat="45.6796600" lon="8.3866000">
<time>2017-08-08T14:24:24.454Z</time>
</trkpt>
<trkpt lat="45.6791700" lon="8.3864200">
<time>2017-08-08T14:24:24.454Z</time>
</trkpt>
<trkpt lat="45.6790600" lon="8.3864000">
<time>2017-08-08T14:24:24.454Z</time>
</trkpt>
<trkpt lat="45.6789600" lon="8.3864100">
<time>2017-08-08T14:24:24.455Z</time>
</trkpt>
<trkpt lat="45.6787700" lon="8.3865100">
<time>2017-08-08T14:24:24.455Z</time>
</trkpt>
<trkpt lat="45.6787100" lon="8.3865700">
<time>2017-08-08T14:24:24.455Z</time>
</trkpt>
<trkpt lat="45.6783400" lon="8.3867700">
<time>2017-08-08T14:24:24.455Z</time>
</trkpt>
<trkpt lat="45.6779500" lon="8.3862800">
<time>2017-08-08T14:24:24.455Z</time>
</trkpt>
<trkpt lat="45.6779400" lon="8.3861600">
<time>2017-08-08T14:24:24.455Z</time>
</trkpt>
<trkpt lat="45.6777200" lon="8.3856100">
<time>2017-08-08T14:24:24.455Z</time>
</trkpt>
<trkpt lat="45.6774600" lon="8.3854800">
<time>2017-08-08T14:24:24.455Z</time>
</trkpt>
<trkpt lat="45.6772100" lon="8.3854200">
<time>2017-08-08T14:24:24.455Z</time>
</trkpt>
<trkpt lat="45.6768000" lon="8.3853000">
<time>2017-08-08T14:24:24.455Z</time>
</trkpt>
<trkpt lat="45.6765500" lon="8.3851500">
<time>2017-08-08T14:24:24.456Z</time>
</trkpt>
<trkpt lat="45.6763700" lon="8.3850600">
<time>2017-08-08T14:24:24.456Z</time>
</trkpt>
<trkpt lat="45.6760900" lon="8.3849200">
<time>2017-08-08T14:24:24.456Z</time>
</trkpt>
<trkpt lat="45.6756400" lon="8.3847800">
<time>2017-08-08T14:24:24.456Z</time>
</trkpt>
<trkpt lat="45.6754300" lon="8.3845700">
<time>2017-08-08T14:24:24.456Z</time>
</trkpt>
<trkpt lat="45.6751800" lon="8.3845000">
<time>2017-08-08T14:24:24.456Z</time>
</trkpt>
<trkpt lat="45.6750400" lon="8.3844600">
<time>2017-08-08T14:24:24.456Z</time>
</trkpt>
<trkpt lat="45.6747800" lon="8.3843900">
<time>2017-08-08T14:24:24.456Z</time>
</trkpt>
<trkpt lat="45.6746800" lon="8.3843700">
<time>2017-08-08T14:24:24.456Z</time>
</trkpt>
<trkpt lat="45.6744000" lon="8.3843000">
<time>2017-08-08T14:24:24.456Z</time>
</trkpt>
<trkpt lat="45.6736800" lon="8.3840700">
<time>2017-08-08T14:24:24.457Z</time>
</trkpt>
<trkpt lat="45.6734200" lon="8.3840700">
<time>2017-08-08T14:24:24.457Z</time>
</trkpt>
<trkpt lat="45.6731900" lon="8.3840800">
<time>2017-08-08T14:24:24.457Z</time>
</trkpt>
<trkpt lat="45.6729500" lon="8.3841000">
<time>2017-08-08T14:24:24.457Z</time>
</trkpt>
<trkpt lat="45.6726500" lon="8.3840600">
<time>2017-08-08T14:24:24.457Z</time>
</trkpt>
<trkpt lat="45.6720200" lon="8.3840100">
<time>2017-08-08T14:24:24.457Z</time>
</trkpt>
<trkpt lat="45.6719200" lon="8.3840000">
<time>2017-08-08T14:24:24.457Z</time>
</trkpt>
<trkpt lat="45.6713800" lon="8.3839200">
<time>2017-08-08T14:24:24.457Z</time>
</trkpt>
<trkpt lat="45.6712000" lon="8.3838600">
<time>2017-08-08T14:24:24.457Z</time>
</trkpt>
<trkpt lat="45.6709900" lon="8.3837900">
<time>2017-08-08T14:24:24.457Z</time>
</trkpt>
<trkpt lat="45.6707100" lon="8.3837100">
<time>2017-08-08T14:24:24.457Z</time>
</trkpt>
<trkpt lat="45.6705700" lon="8.3836700">
<time>2017-08-08T14:24:24.458Z</time>
</trkpt>
<trkpt lat="45.6704200" lon="8.3836200">
<time>2017-08-08T14:24:24.458Z</time>
</trkpt>
<trkpt lat="45.6702200" lon="8.3834800">
<time>2017-08-08T14:24:24.458Z</time>
</trkpt>
<trkpt lat="45.6698000" lon="8.3832000">
<time>2017-08-08T14:24:24.458Z</time>
</trkpt>
<trkpt lat="45.6693700" lon="8.3830900">
<time>2017-08-08T14:24:24.458Z</time>
</trkpt>
<trkpt lat="45.6687400" lon="8.3828900">
<time>2017-08-08T14:24:24.458Z</time>
</trkpt>
<trkpt lat="45.6685700" lon="8.3828300">
<time>2017-08-08T14:24:24.458Z</time>
</trkpt>
<trkpt lat="45.6681500" lon="8.3826900">
<time>2017-08-08T14:24:24.458Z</time>
</trkpt>
<trkpt lat="45.6678300" lon="8.3826200">
<time>2017-08-08T14:24:24.458Z</time>
</trkpt>
<trkpt lat="45.6672100" lon="8.3825400">
<time>2017-08-08T14:24:24.458Z</time>
</trkpt>
<trkpt lat="45.6668600" lon="8.3824900">
<time>2017-08-08T14:24:24.459Z</time>
</trkpt>
<trkpt lat="45.6666000" lon="8.3824900">
<time>2017-08-08T14:24:24.459Z</time>
</trkpt>
<trkpt lat="45.6664000" lon="8.3826700">
<time>2017-08-08T14:24:24.459Z</time>
</trkpt>
<trkpt lat="45.6662200" lon="8.3828300">
<time>2017-08-08T14:24:24.459Z</time>
</trkpt>
<trkpt lat="45.6661500" lon="8.3828800">
<time>2017-08-08T14:24:24.459Z</time>
</trkpt>
<trkpt lat="45.6660400" lon="8.3829600">
<time>2017-08-08T14:24:24.459Z</time>
</trkpt>
<trkpt lat="45.6658200" lon="8.3830900">
<time>2017-08-08T14:24:24.459Z</time>
</trkpt>
<trkpt lat="45.6656100" lon="8.3831200">
<time>2017-08-08T14:24:24.459Z</time>
</trkpt>
<trkpt lat="45.6655000" lon="8.3831200">
<time>2017-08-08T14:24:24.459Z</time>
</trkpt>
<trkpt lat="45.6653000" lon="8.3831100">
<time>2017-08-08T14:24:24.459Z</time>
</trkpt>
<trkpt lat="45.6650600" lon="8.3833000">
<time>2017-08-08T14:24:24.459Z</time>
</trkpt>
<trkpt lat="45.6648700" lon="8.3834800">
<time>2017-08-08T14:24:24.460Z</time>
</trkpt>
<trkpt lat="45.6645900" lon="8.3835600">
<time>2017-08-08T14:24:24.460Z</time>
</trkpt>
<trkpt lat="45.6643300" lon="8.3834700">
<time>2017-08-08T14:24:24.460Z</time>
</trkpt>
<trkpt lat="45.6641200" lon="8.3833700">
<time>2017-08-08T14:24:24.460Z</time>
</trkpt>
<trkpt lat="45.6638700" lon="8.3833500">
<time>2017-08-08T14:24:24.460Z</time>
</trkpt>
<trkpt lat="45.6638300" lon="8.3833600">
<time>2017-08-08T14:24:24.460Z</time>
</trkpt>
<trkpt lat="45.6637400" lon="8.3832700">
<time>2017-08-08T14:24:24.460Z</time>
</trkpt>
<trkpt lat="45.6636500" lon="8.3831800">
<time>2017-08-08T14:24:24.460Z</time>
</trkpt>
<trkpt lat="45.6636100" lon="8.3831400">
<time>2017-08-08T14:24:24.460Z</time>
</trkpt>
<trkpt lat="45.6635700" lon="8.3831000">
<time>2017-08-08T14:24:24.460Z</time>
</trkpt>
<trkpt lat="45.6634800" lon="8.3830400">
<time>2017-08-08T14:24:24.461Z</time>
</trkpt>
<trkpt lat="45.6634000" lon="8.3829700">
<time>2017-08-08T14:24:24.461Z</time>
</trkpt>
<trkpt lat="45.6632600" lon="8.3828900">
<time>2017-08-08T14:24:24.461Z</time>
</trkpt>
<trkpt lat="45.6630200" lon="8.3828800">
<time>2017-08-08T14:24:24.461Z</time>
</trkpt>
<trkpt lat="45.6629700" lon="8.3828700">
<time>2017-08-08T14:24:24.461Z</time>
</trkpt>
<trkpt lat="45.6627800" lon="8.3828400">
<time>2017-08-08T14:24:24.461Z</time>
</trkpt>
<trkpt lat="45.6625200" lon="8.3828100">
<time>2017-08-08T14:24:24.461Z</time>
</trkpt>
<trkpt lat="45.6623700" lon="8.3827800">
<time>2017-08-08T14:24:24.461Z</time>
</trkpt>
<trkpt lat="45.6622100" lon="8.3826600">
<time>2017-08-08T14:24:24.461Z</time>
</trkpt>
<trkpt lat="45.6620400" lon="8.3824700">
<time>2017-08-08T14:24:24.461Z</time>
</trkpt>
<trkpt lat="45.6618800" lon="8.3822900">
<time>2017-08-08T14:24:24.461Z</time>
</trkpt>
<trkpt lat="45.6618400" lon="8.3822500">
<time>2017-08-08T14:24:24.462Z</time>
</trkpt>
<trkpt lat="45.6617600" lon="8.3821700">
<time>2017-08-08T14:24:24.462Z</time>
</trkpt>
<trkpt lat="45.6615100" lon="8.3819300">
<time>2017-08-08T14:24:24.462Z</time>
</trkpt>
<trkpt lat="45.6614600" lon="8.3819000">
<time>2017-08-08T14:24:24.462Z</time>
</trkpt>
<trkpt lat="45.6611700" lon="8.3816000">
<time>2017-08-08T14:24:24.462Z</time>
</trkpt>
<trkpt lat="45.6611400" lon="8.3814300">
<time>2017-08-08T14:24:24.462Z</time>
</trkpt>
<trkpt lat="45.6610000" lon="8.3813000">
<time>2017-08-08T14:24:24.462Z</time>
</trkpt>
<trkpt lat="45.6607000" lon="8.3813000">
<time>2017-08-08T14:24:24.462Z</time>
</trkpt>
<trkpt lat="45.6602100" lon="8.3813000">
<time>2017-08-08T14:24:24.462Z</time>
</trkpt>
<trkpt lat="45.6598900" lon="8.3812600">
<time>2017-08-08T14:24:24.463Z</time>
</trkpt>
<trkpt lat="45.6598400" lon="8.3812600">
<time>2017-08-08T14:24:24.463Z</time>
</trkpt>
<trkpt lat="45.6594300" lon="8.3812500">
<time>2017-08-08T14:24:24.463Z</time>
</trkpt>
<trkpt lat="45.6592600" lon="8.3812600">
<time>2017-08-08T14:24:24.463Z</time>
</trkpt>
<trkpt lat="45.6591100" lon="8.3811200">
<time>2017-08-08T14:24:24.463Z</time>
</trkpt>
<trkpt lat="45.6585700" lon="8.3812600">
<time>2017-08-08T14:24:24.463Z</time>
</trkpt>
<trkpt lat="45.6581200" lon="8.3811300">
<time>2017-08-08T14:24:24.463Z</time>
</trkpt>
<trkpt lat="45.6579400" lon="8.3809700">
<time>2017-08-08T14:24:24.463Z</time>
</trkpt>
<trkpt lat="45.6576900" lon="8.3805700">
<time>2017-08-08T14:24:24.463Z</time>
</trkpt>
<trkpt lat="45.6575900" lon="8.3804000">
<time>2017-08-08T14:24:24.463Z</time>
</trkpt>
<trkpt lat="45.6575000" lon="8.3802400">
<time>2017-08-08T14:24:24.464Z</time>
</trkpt>
<trkpt lat="45.6571900" lon="8.3797800">
<time>2017-08-08T14:24:24.464Z</time>
</trkpt>
<trkpt lat="45.6569800" lon="8.3795600">
<time>2017-08-08T14:24:24.464Z</time>
</trkpt>
<trkpt lat="45.6567300" lon="8.3793200">
<time>2017-08-08T14:24:24.464Z</time>
</trkpt>
<trkpt lat="45.6564700" lon="8.3791100">
<time>2017-08-08T14:24:24.464Z</time>
</trkpt>
<trkpt lat="45.6562600" lon="8.3789500">
<time>2017-08-08T14:24:24.464Z</time>
</trkpt>
<trkpt lat="45.6561400" lon="8.3788600">
<time>2017-08-08T14:24:24.464Z</time>
</trkpt>
<trkpt lat="45.6558800" lon="8.3786800">
<time>2017-08-08T14:24:24.464Z</time>
</trkpt>
<trkpt lat="45.6556700" lon="8.3785800">
<time>2017-08-08T14:24:24.465Z</time>
</trkpt>
<trkpt lat="45.6554500" lon="8.3785100">
<time>2017-08-08T14:24:24.465Z</time>
</trkpt>
<trkpt lat="45.6551900" lon="8.3784200">
<time>2017-08-08T14:24:24.465Z</time>
</trkpt>
<trkpt lat="45.6544800" lon="8.3781800">
<time>2017-08-08T14:24:24.465Z</time>
</trkpt>
<trkpt lat="45.6542500" lon="8.3781200">
<time>2017-08-08T14:24:24.465Z</time>
</trkpt>
<trkpt lat="45.6539500" lon="8.3780800">
<time>2017-08-08T14:24:24.465Z</time>
</trkpt>
<trkpt lat="45.6536100" lon="8.3778700">
<time>2017-08-08T14:24:24.465Z</time>
</trkpt>
<trkpt lat="45.6534400" lon="8.3778100">
<time>2017-08-08T14:24:24.465Z</time>
</trkpt>
<trkpt lat="45.6529100" lon="8.3777600">
<time>2017-08-08T14:24:24.465Z</time>
</trkpt>
<trkpt lat="45.6524900" lon="8.3776500">
<time>2017-08-08T14:24:24.465Z</time>
</trkpt>
<trkpt lat="45.6521500" lon="8.3775500">
<time>2017-08-08T14:24:24.466Z</time>
</trkpt>
<trkpt lat="45.6520400" lon="8.3775300">
<time>2017-08-08T14:24:24.466Z</time>
</trkpt>
<trkpt lat="45.6517500" lon="8.3774900">
<time>2017-08-08T14:24:24.466Z</time>
</trkpt>
<trkpt lat="45.6506400" lon="8.3773200">
<time>2017-08-08T14:24:24.466Z</time>
</trkpt>
<trkpt lat="45.6504700" lon="8.3772900">
<time>2017-08-08T14:24:24.466Z</time>
</trkpt>
<trkpt lat="45.6504600" lon="8.3768900">
<time>2017-08-08T14:24:24.466Z</time>
</trkpt>
<trkpt lat="45.6502600" lon="8.3770300">
<time>2017-08-08T14:24:24.466Z</time>
</trkpt>
<trkpt lat="45.6501200" lon="8.3772100">
<time>2017-08-08T14:24:24.466Z</time>
</trkpt>
<trkpt lat="45.6494800" lon="8.3770700">
<time>2017-08-08T14:24:24.466Z</time>
</trkpt>
<trkpt lat="45.6493100" lon="8.3769500">
<time>2017-08-08T14:24:24.466Z</time>
</trkpt>
<trkpt lat="45.6488600" lon="8.3761700">
<time>2017-08-08T14:24:24.467Z</time>
</trkpt>
<trkpt lat="45.6488200" lon="8.3761100">
<time>2017-08-08T14:24:24.467Z</time>
</trkpt>
<trkpt lat="45.6486500" lon="8.3762300">
<time>2017-08-08T14:24:24.467Z</time>
</trkpt>
<trkpt lat="45.6484100" lon="8.3766000">
<time>2017-08-08T14:24:24.467Z</time>
</trkpt>
<trkpt lat="45.6481400" lon="8.3768600">
<time>2017-08-08T14:24:24.467Z</time>
</trkpt>
<trkpt lat="45.6480200" lon="8.3769800">
<time>2017-08-08T14:24:24.467Z</time>
</trkpt>
<trkpt lat="45.6477800" lon="8.3771800">
<time>2017-08-08T14:24:24.467Z</time>
</trkpt>
<trkpt lat="45.6473800" lon="8.3774000">
<time>2017-08-08T14:24:24.467Z</time>
</trkpt>
<trkpt lat="45.6473100" lon="8.3774000">
<time>2017-08-08T14:24:24.467Z</time>
</trkpt>
<trkpt lat="45.6467000" lon="8.3773400">
<time>2017-08-08T14:24:24.467Z</time>
</trkpt>
<trkpt lat="45.6464100" lon="8.3774100">
<time>2017-08-08T14:24:24.468Z</time>
</trkpt>
<trkpt lat="45.6461800" lon="8.3775200">
<time>2017-08-08T14:24:24.468Z</time>
</trkpt>
<trkpt lat="45.6460600" lon="8.3776300">
<time>2017-08-08T14:24:24.468Z</time>
</trkpt>
<trkpt lat="45.6459800" lon="8.3777700">
<time>2017-08-08T14:24:24.468Z</time>
</trkpt>
<trkpt lat="45.6459400" lon="8.3779300">
<time>2017-08-08T14:24:24.468Z</time>
</trkpt>
<trkpt lat="45.6459500" lon="8.3781300">
<time>2017-08-08T14:24:24.468Z</time>
</trkpt>
<trkpt lat="45.6460100" lon="8.3783800">
<time>2017-08-08T14:24:24.468Z</time>
</trkpt>
<trkpt lat="45.6459900" lon="8.3785600">
<time>2017-08-08T14:24:24.468Z</time>
</trkpt>
<trkpt lat="45.6458800" lon="8.3785700">
<time>2017-08-08T14:24:24.468Z</time>
</trkpt>
<trkpt lat="45.6458300" lon="8.3785400">
<time>2017-08-08T14:24:24.468Z</time>
</trkpt>
<trkpt lat="45.6457400" lon="8.3784400">
<time>2017-08-08T14:24:24.469Z</time>
</trkpt>
<trkpt lat="45.6456700" lon="8.3783600">
<time>2017-08-08T14:24:24.469Z</time>
</trkpt>
<trkpt lat="45.6455500" lon="8.3782200">
<time>2017-08-08T14:24:24.469Z</time>
</trkpt>
<trkpt lat="45.6454200" lon="8.3780200">
<time>2017-08-08T14:24:24.469Z</time>
</trkpt>
<trkpt lat="45.6454300" lon="8.3778500">
<time>2017-08-08T14:24:24.469Z</time>
</trkpt>
<trkpt lat="45.6455200" lon="8.3777300">
<time>2017-08-08T14:24:24.469Z</time>
</trkpt>
<trkpt lat="45.6454800" lon="8.3776600">
<time>2017-08-08T14:24:24.469Z</time>
</trkpt>
<trkpt lat="45.6453800" lon="8.3777600">
<time>2017-08-08T14:24:24.469Z</time>
</trkpt>
<trkpt lat="45.6452300" lon="8.3778400">
<time>2017-08-08T14:24:24.469Z</time>
</trkpt>
<trkpt lat="45.6450400" lon="8.3778600">
<time>2017-08-08T14:24:24.469Z</time>
</trkpt>
<trkpt lat="45.6449600" lon="8.3778800">
<time>2017-08-08T14:24:24.470Z</time>
</trkpt>
<trkpt lat="45.6448600" lon="8.3778800">
<time>2017-08-08T14:24:24.470Z</time>
</trkpt>
<trkpt lat="45.6447100" lon="8.3778900">
<time>2017-08-08T14:24:24.470Z</time>
</trkpt>
<trkpt lat="45.6446300" lon="8.3778300">
<time>2017-08-08T14:24:24.470Z</time>
</trkpt>
<trkpt lat="45.6446000" lon="8.3777400">
<time>2017-08-08T14:24:24.470Z</time>
</trkpt>
<trkpt lat="45.6445700" lon="8.3775700">
<time>2017-08-08T14:24:24.470Z</time>
</trkpt>
<trkpt lat="45.6444700" lon="8.3774400">
<time>2017-08-08T14:24:24.470Z</time>
</trkpt>
<trkpt lat="45.6442400" lon="8.3774300">
<time>2017-08-08T14:24:24.470Z</time>
</trkpt>
<trkpt lat="45.6441600" lon="8.3775100">
<time>2017-08-08T14:24:24.470Z</time>
</trkpt>
<trkpt lat="45.6440200" lon="8.3777100">
<time>2017-08-08T14:24:24.470Z</time>
</trkpt>
<trkpt lat="45.6438800" lon="8.3778600">
<time>2017-08-08T14:24:24.471Z</time>
</trkpt>
<trkpt lat="45.6437500" lon="8.3780700">
<time>2017-08-08T14:24:24.471Z</time>
</trkpt>
<trkpt lat="45.6436300" lon="8.3781900">
<time>2017-08-08T14:24:24.471Z</time>
</trkpt>
<trkpt lat="45.6436000" lon="8.3782300">
<time>2017-08-08T14:24:24.471Z</time>
</trkpt>
<trkpt lat="45.6435800" lon="8.3782800">
<time>2017-08-08T14:24:24.471Z</time>
</trkpt>
<trkpt lat="45.6434500" lon="8.3784600">
<time>2017-08-08T14:24:24.471Z</time>
</trkpt>
<trkpt lat="45.6433300" lon="8.3786100">
<time>2017-08-08T14:24:24.471Z</time>
</trkpt>
<trkpt lat="45.6432100" lon="8.3788000">
<time>2017-08-08T14:24:24.471Z</time>
</trkpt>
<trkpt lat="45.6431400" lon="8.3790000">
<time>2017-08-08T14:24:24.471Z</time>
</trkpt>
<trkpt lat="45.6431300" lon="8.3791600">
<time>2017-08-08T14:24:24.471Z</time>
</trkpt>
<trkpt lat="45.6431500" lon="8.3793500">
<time>2017-08-08T14:24:24.472Z</time>
</trkpt>
<trkpt lat="45.6431400" lon="8.3795300">
<time>2017-08-08T14:24:24.472Z</time>
</trkpt>
<trkpt lat="45.6431600" lon="8.3796300">
<time>2017-08-08T14:24:24.472Z</time>
</trkpt>
<trkpt lat="45.6432000" lon="8.3798200">
<time>2017-08-08T14:24:24.472Z</time>
</trkpt>
<trkpt lat="45.6431900" lon="8.3800000">
<time>2017-08-08T14:24:24.472Z</time>
</trkpt>
<trkpt lat="45.6431900" lon="8.3800600">
<time>2017-08-08T14:24:24.472Z</time>
</trkpt>
<trkpt lat="45.6431400" lon="8.3801800">
<time>2017-08-08T14:24:24.472Z</time>
</trkpt>
<trkpt lat="45.6430700" lon="8.3803200">
<time>2017-08-08T14:24:24.472Z</time>
</trkpt>
<trkpt lat="45.6429100" lon="8.3805100">
<time>2017-08-08T14:24:24.472Z</time>
</trkpt>
<trkpt lat="45.6428900" lon="8.3805500">
<time>2017-08-08T14:24:24.472Z</time>
</trkpt>
<trkpt lat="45.6428000" lon="8.3806300">
<time>2017-08-08T14:24:24.473Z</time>
</trkpt>
<trkpt lat="45.6426200" lon="8.3808900">
<time>2017-08-08T14:24:24.473Z</time>
</trkpt>
<trkpt lat="45.6425800" lon="8.3810100">
<time>2017-08-08T14:24:24.473Z</time>
</trkpt>
<trkpt lat="45.6424900" lon="8.3812200">
<time>2017-08-08T14:24:24.473Z</time>
</trkpt>
<trkpt lat="45.6424100" lon="8.3813200">
<time>2017-08-08T14:24:24.473Z</time>
</trkpt>
<trkpt lat="45.6423200" lon="8.3813700">
<time>2017-08-08T14:24:24.473Z</time>
</trkpt>
<trkpt lat="45.6422500" lon="8.3814000">
<time>2017-08-08T14:24:24.473Z</time>
</trkpt>
<trkpt lat="45.6422400" lon="8.3814100">
<time>2017-08-08T14:24:24.473Z</time>
</trkpt>
<trkpt lat="45.6422200" lon="8.3814200">
<time>2017-08-08T14:24:24.473Z</time>
</trkpt>
<trkpt lat="45.6421900" lon="8.3814300">
<time>2017-08-08T14:24:24.473Z</time>
</trkpt>
<trkpt lat="45.6421100" lon="8.3814300">
<time>2017-08-08T14:24:24.474Z</time>
</trkpt>
<trkpt lat="45.6420400" lon="8.3812900">
<time>2017-08-08T14:24:24.474Z</time>
</trkpt>
<trkpt lat="45.6419300" lon="8.3810300">
<time>2017-08-08T14:24:24.474Z</time>
</trkpt>
<trkpt lat="45.6418000" lon="8.3808500">
<time>2017-08-08T14:24:24.474Z</time>
</trkpt>
<trkpt lat="45.6416600" lon="8.3807100">
<time>2017-08-08T14:24:24.474Z</time>
</trkpt>
<trkpt lat="45.6416100" lon="8.3807300">
<time>2017-08-08T14:24:24.474Z</time>
</trkpt>
<trkpt lat="45.6414900" lon="8.3805300">
<time>2017-08-08T14:24:24.474Z</time>
</trkpt>
<trkpt lat="45.6413300" lon="8.3801300">
<time>2017-08-08T14:24:24.474Z</time>
</trkpt>
<trkpt lat="45.6410400" lon="8.3800800">
<time>2017-08-08T14:24:24.474Z</time>
</trkpt>
<trkpt lat="45.6401900" lon="8.3806200">
<time>2017-08-08T14:24:24.475Z</time>
</trkpt>
<trkpt lat="45.6400200" lon="8.3805200">
<time>2017-08-08T14:24:24.475Z</time>
</trkpt>
<trkpt lat="45.6398600" lon="8.3801200">
<time>2017-08-08T14:24:24.475Z</time>
</trkpt>
<trkpt lat="45.6397200" lon="8.3797600">
<time>2017-08-08T14:24:24.475Z</time>
</trkpt>
<trkpt lat="45.6396000" lon="8.3794800">
<time>2017-08-08T14:24:24.475Z</time>
</trkpt>
<trkpt lat="45.6395200" lon="8.3793100">
<time>2017-08-08T14:24:24.475Z</time>
</trkpt>
<trkpt lat="45.6394800" lon="8.3792200">
<time>2017-08-08T14:24:24.475Z</time>
</trkpt>
<trkpt lat="45.6392100" lon="8.3790600">
<time>2017-08-08T14:24:24.475Z</time>
</trkpt>
<trkpt lat="45.6389800" lon="8.3791400">
<time>2017-08-08T14:24:24.475Z</time>
</trkpt>
<trkpt lat="45.6388000" lon="8.3790300">
<time>2017-08-08T14:24:24.475Z</time>
</trkpt>
<trkpt lat="45.6385300" lon="8.3789100">
<time>2017-08-08T14:24:24.476Z</time>
</trkpt>
<trkpt lat="45.6377200" lon="8.3794800">
<time>2017-08-08T14:24:24.476Z</time>
</trkpt>
<trkpt lat="45.6375400" lon="8.3796400">
<time>2017-08-08T14:24:24.476Z</time>
</trkpt>
<trkpt lat="45.6374100" lon="8.3797500">
<time>2017-08-08T14:24:24.476Z</time>
</trkpt>
<trkpt lat="45.6372600" lon="8.3799000">
<time>2017-08-08T14:24:24.476Z</time>
</trkpt>
<trkpt lat="45.6371200" lon="8.3800400">
<time>2017-08-08T14:24:24.476Z</time>
</trkpt>
<trkpt lat="45.6368700" lon="8.3802200">
<time>2017-08-08T14:24:24.476Z</time>
</trkpt>
<trkpt lat="45.6366400" lon="8.3803800">
<time>2017-08-08T14:24:24.476Z</time>
</trkpt>
<trkpt lat="45.6364100" lon="8.3805400">
<time>2017-08-08T14:24:24.476Z</time>
</trkpt>
<trkpt lat="45.6361800" lon="8.3807000">
<time>2017-08-08T14:24:24.476Z</time>
</trkpt>
<trkpt lat="45.6359500" lon="8.3808600">
<time>2017-08-08T14:24:24.477Z</time>
</trkpt>
<trkpt lat="45.6358100" lon="8.3808600">
<time>2017-08-08T14:24:24.477Z</time>
</trkpt>
<trkpt lat="45.6357000" lon="8.3806800">
<time>2017-08-08T14:24:24.477Z</time>
</trkpt>
<trkpt lat="45.6355800" lon="8.3804400">
<time>2017-08-08T14:24:24.477Z</time>
</trkpt>
<trkpt lat="45.6354300" lon="8.3802400">
<time>2017-08-08T14:24:24.477Z</time>
</trkpt>
<trkpt lat="45.6354000" lon="8.3801900">
<time>2017-08-08T14:24:24.477Z</time>
</trkpt>
<trkpt lat="45.6352500" lon="8.3799600">
<time>2017-08-08T14:24:24.477Z</time>
</trkpt>
<trkpt lat="45.6352700" lon="8.3797100">
<time>2017-08-08T14:24:24.477Z</time>
</trkpt>
<trkpt lat="45.6352800" lon="8.3794900">
<time>2017-08-08T14:24:24.477Z</time>
</trkpt>
<trkpt lat="45.6349900" lon="8.3791900">
<time>2017-08-08T14:24:24.477Z</time>
</trkpt>
<trkpt lat="45.6349700" lon="8.3790700">
<time>2017-08-08T14:24:24.477Z</time>
</trkpt>
<trkpt lat="45.6349500" lon="8.3790500">
<time>2017-08-08T14:24:24.478Z</time>
</trkpt>
<trkpt lat="45.6349000" lon="8.3789400">
<time>2017-08-08T14:24:24.478Z</time>
</trkpt>
<trkpt lat="45.6349000" lon="8.3789100">
<time>2017-08-08T14:24:24.478Z</time>
</trkpt>
<trkpt lat="45.6350200" lon="8.3787900">
<time>2017-08-08T14:24:24.478Z</time>
</trkpt>
<trkpt lat="45.6351700" lon="8.3786700">
<time>2017-08-08T14:24:24.478Z</time>
</trkpt>
<trkpt lat="45.6353600" lon="8.3785600">
<time>2017-08-08T14:24:24.478Z</time>
</trkpt>
<trkpt lat="45.6354100" lon="8.3785500">
<time>2017-08-08T14:24:24.478Z</time>
</trkpt>
<trkpt lat="45.6355400" lon="8.3785300">
<time>2017-08-08T14:24:24.478Z</time>
</trkpt>
<trkpt lat="45.6357100" lon="8.3784600">
<time>2017-08-08T14:24:24.478Z</time>
</trkpt>
<trkpt lat="45.6358900" lon="8.3783800">
<time>2017-08-08T14:24:24.478Z</time>
</trkpt>
<trkpt lat="45.6359500" lon="8.3783600">
<time>2017-08-08T14:24:24.479Z</time>
</trkpt>
<trkpt lat="45.6361400" lon="8.3783300">
<time>2017-08-08T14:24:24.479Z</time>
</trkpt>
<trkpt lat="45.6362400" lon="8.3783200">
<time>2017-08-08T14:24:24.479Z</time>
</trkpt>
<trkpt lat="45.6364000" lon="8.3783000">
<time>2017-08-08T14:24:24.479Z</time>
</trkpt>
<trkpt lat="45.6365900" lon="8.3782500">
<time>2017-08-08T14:24:24.479Z</time>
</trkpt>
<trkpt lat="45.6366300" lon="8.3782200">
<time>2017-08-08T14:24:24.479Z</time>
</trkpt>
<trkpt lat="45.6367700" lon="8.3781000">
<time>2017-08-08T14:24:24.479Z</time>
</trkpt>
<trkpt lat="45.6369200" lon="8.3779600">
<time>2017-08-08T14:24:24.479Z</time>
</trkpt>
<trkpt lat="45.6369500" lon="8.3779500">
<time>2017-08-08T14:24:24.479Z</time>
</trkpt>
<trkpt lat="45.6370800" lon="8.3778400">
<time>2017-08-08T14:24:24.480Z</time>
</trkpt>
<trkpt lat="45.6371300" lon="8.3777000">
<time>2017-08-08T14:24:24.480Z</time>
</trkpt>
<trkpt lat="45.6372300" lon="8.3775000">
<time>2017-08-08T14:24:24.480Z</time>
</trkpt>
<trkpt lat="45.6372800" lon="8.3772800">
<time>2017-08-08T14:24:24.480Z</time>
</trkpt>
<trkpt lat="45.6372800" lon="8.3772300">
<time>2017-08-08T14:24:24.480Z</time>
</trkpt>
<trkpt lat="45.6373500" lon="8.3769900">
<time>2017-08-08T14:24:24.480Z</time>
</trkpt>
<trkpt lat="45.6374200" lon="8.3769100">
<time>2017-08-08T14:24:24.480Z</time>
</trkpt>
<trkpt lat="45.6374800" lon="8.3768100">
<time>2017-08-08T14:24:24.480Z</time>
</trkpt>
<trkpt lat="45.6375000" lon="8.3767400">
<time>2017-08-08T14:24:24.480Z</time>
</trkpt>
<trkpt lat="45.6375500" lon="8.3766700">
<time>2017-08-08T14:24:24.480Z</time>
</trkpt>
<trkpt lat="45.6377200" lon="8.3765400">
<time>2017-08-08T14:24:24.480Z</time>
</trkpt>
<trkpt lat="45.6377500" lon="8.3764800">
<time>2017-08-08T14:24:24.481Z</time>
</trkpt>
<trkpt lat="45.6378100" lon="8.3764500">
<time>2017-08-08T14:24:24.481Z</time>
</trkpt>
<trkpt lat="45.6379500" lon="8.3762900">
<time>2017-08-08T14:24:24.481Z</time>
</trkpt>
<trkpt lat="45.6378800" lon="8.3761100">
<time>2017-08-08T14:24:24.481Z</time>
</trkpt>
<trkpt lat="45.6377200" lon="8.3757000">
<time>2017-08-08T14:24:24.481Z</time>
</trkpt>
<trkpt lat="45.6373900" lon="8.3749300">
<time>2017-08-08T14:24:24.481Z</time>
</trkpt>
<trkpt lat="45.6372500" lon="8.3744400">
<time>2017-08-08T14:24:24.481Z</time>
</trkpt>
<trkpt lat="45.6370100" lon="8.3738100">
<time>2017-08-08T14:24:24.481Z</time>
</trkpt>
<trkpt lat="45.6363300" lon="8.3724000">
<time>2017-08-08T14:24:24.481Z</time>
</trkpt>
<trkpt lat="45.6360100" lon="8.3719200">
<time>2017-08-08T14:24:24.481Z</time>
</trkpt>
<trkpt lat="45.6354700" lon="8.3722500">
<time>2017-08-08T14:24:24.482Z</time>
</trkpt>
<trkpt lat="45.6353700" lon="8.3722500">
<time>2017-08-08T14:24:24.482Z</time>
</trkpt>
<trkpt lat="45.6351400" lon="8.3722500">
<time>2017-08-08T14:24:24.482Z</time>
</trkpt>
<trkpt lat="45.6328000" lon="8.3720700">
<time>2017-08-08T14:24:24.482Z</time>
</trkpt>
<trkpt lat="45.6310700" lon="8.3719600">
<time>2017-08-08T14:24:24.482Z</time>
</trkpt>
<trkpt lat="45.6297700" lon="8.3718400">
<time>2017-08-08T14:24:24.482Z</time>
</trkpt>
<trkpt lat="45.6295900" lon="8.3718300">
<time>2017-08-08T14:24:24.482Z</time>
</trkpt>
<trkpt lat="45.6293900" lon="8.3718100">
<time>2017-08-08T14:24:24.482Z</time>
</trkpt>
<trkpt lat="45.6293400" lon="8.3715200">
<time>2017-08-08T14:24:24.482Z</time>
</trkpt>
<trkpt lat="45.6291500" lon="8.3713200">
<time>2017-08-08T14:24:24.482Z</time>
</trkpt>
<trkpt lat="45.6290700" lon="8.3712500">
<time>2017-08-08T14:24:24.482Z</time>
</trkpt>
<trkpt lat="45.6287100" lon="8.3710000">
<time>2017-08-08T14:24:24.483Z</time>
</trkpt>
<trkpt lat="45.6287100" lon="8.3708900">
<time>2017-08-08T14:24:24.483Z</time>
</trkpt>
<trkpt lat="45.6287100" lon="8.3708100">
<time>2017-08-08T14:24:24.483Z</time>
</trkpt>
<trkpt lat="45.6286200" lon="8.3707200">
<time>2017-08-08T14:24:24.483Z</time>
</trkpt>
<trkpt lat="45.6283900" lon="8.3706100">
<time>2017-08-08T14:24:24.483Z</time>
</trkpt>
<trkpt lat="45.6277800" lon="8.3702200">
<time>2017-08-08T14:24:24.483Z</time>
</trkpt>
<trkpt lat="45.6274200" lon="8.3700900">
<time>2017-08-08T14:24:24.483Z</time>
</trkpt>
<trkpt lat="45.6270000" lon="8.3702100">
<time>2017-08-08T14:24:24.483Z</time>
</trkpt>
<trkpt lat="45.6261900" lon="8.3701400">
<time>2017-08-08T14:24:24.483Z</time>
</trkpt>
<trkpt lat="45.6252100" lon="8.3700400">
<time>2017-08-08T14:24:24.483Z</time>
</trkpt>
<trkpt lat="45.6241200" lon="8.3699200">
<time>2017-08-08T14:24:24.484Z</time>
</trkpt>
<trkpt lat="45.6240200" lon="8.3699100">
<time>2017-08-08T14:24:24.484Z</time>
</trkpt>
<trkpt lat="45.6240900" lon="8.3693700">
<time>2017-08-08T14:24:24.484Z</time>
</trkpt>
<trkpt lat="45.6241500" lon="8.3687400">
<time>2017-08-08T14:24:24.484Z</time>
</trkpt>
<trkpt lat="45.6239400" lon="8.3688200">
<time>2017-08-08T14:24:24.484Z</time>
</trkpt>
<trkpt lat="45.6238200" lon="8.3688800">
<time>2017-08-08T14:24:24.484Z</time>
</trkpt>
<trkpt lat="45.6237700" lon="8.3689000">
<time>2017-08-08T14:24:24.484Z</time>
</trkpt>
<trkpt lat="45.6234800" lon="8.3689600">
<time>2017-08-08T14:24:24.484Z</time>
</trkpt>
<trkpt lat="45.6228300" lon="8.3689600">
<time>2017-08-08T14:24:24.485Z</time>
</trkpt>
<trkpt lat="45.6224200" lon="8.3691600">
<time>2017-08-08T14:24:24.485Z</time>
</trkpt>
<trkpt lat="45.6220300" lon="8.3692600">
<time>2017-08-08T14:24:24.485Z</time>
</trkpt>
<trkpt lat="45.6213600" lon="8.3690300">
<time>2017-08-08T14:24:24.485Z</time>
</trkpt>
<trkpt lat="45.6212400" lon="8.3688200">
<time>2017-08-08T14:24:24.485Z</time>
</trkpt>
<trkpt lat="45.6210900" lon="8.3684400">
<time>2017-08-08T14:24:24.485Z</time>
</trkpt>
<trkpt lat="45.6207300" lon="8.3681700">
<time>2017-08-08T14:24:24.485Z</time>
</trkpt>
<trkpt lat="45.6200100" lon="8.3675100">
<time>2017-08-08T14:24:24.485Z</time>
</trkpt>
<trkpt lat="45.6197900" lon="8.3672500">
<time>2017-08-08T14:24:24.485Z</time>
</trkpt>
<trkpt lat="45.6197000" lon="8.3672100">
<time>2017-08-08T14:24:24.485Z</time>
</trkpt>
<trkpt lat="45.6196400" lon="8.3669600">
<time>2017-08-08T14:24:24.486Z</time>
</trkpt>
<trkpt lat="45.6195500" lon="8.3665700">
<time>2017-08-08T14:24:24.486Z</time>
</trkpt>
<trkpt lat="45.6193500" lon="8.3660900">
<time>2017-08-08T14:24:24.486Z</time>
</trkpt>
<trkpt lat="45.6191600" lon="8.3656400">
<time>2017-08-08T14:24:24.486Z</time>
</trkpt>
<trkpt lat="45.6189700" lon="8.3657800">
<time>2017-08-08T14:24:24.486Z</time>
</trkpt>
<trkpt lat="45.6188900" lon="8.3658400">
<time>2017-08-08T14:24:24.486Z</time>
</trkpt>
<trkpt lat="45.6188400" lon="8.3658600">
<time>2017-08-08T14:24:24.486Z</time>
</trkpt>
<trkpt lat="45.6188000" lon="8.3658800">
<time>2017-08-08T14:24:24.486Z</time>
</trkpt>
<trkpt lat="45.6187400" lon="8.3658900">
<time>2017-08-08T14:24:24.486Z</time>
</trkpt>
<trkpt lat="45.6187100" lon="8.3658900">
<time>2017-08-08T14:24:24.486Z</time>
</trkpt>
<trkpt lat="45.6186700" lon="8.3658600">
<time>2017-08-08T14:24:24.486Z</time>
</trkpt>
<trkpt lat="45.6185900" lon="8.3659000">
<time>2017-08-08T14:24:24.487Z</time>
</trkpt>
<trkpt lat="45.6185400" lon="8.3659300">
<time>2017-08-08T14:24:24.487Z</time>
</trkpt>
<trkpt lat="45.6184500" lon="8.3661100">
<time>2017-08-08T14:24:24.487Z</time>
</trkpt>
<trkpt lat="45.6183900" lon="8.3661600">
<time>2017-08-08T14:24:24.487Z</time>
</trkpt>
<trkpt lat="45.6182700" lon="8.3663300">
<time>2017-08-08T14:24:24.487Z</time>
</trkpt>
<trkpt lat="45.6181300" lon="8.3666200">
<time>2017-08-08T14:24:24.487Z</time>
</trkpt>
<trkpt lat="45.6179900" lon="8.3669200">
<time>2017-08-08T14:24:24.487Z</time>
</trkpt>
<trkpt lat="45.6177900" lon="8.3671200">
<time>2017-08-08T14:24:24.487Z</time>
</trkpt>
<trkpt lat="45.6177400" lon="8.3671600">
<time>2017-08-08T14:24:24.487Z</time>
</trkpt>
<trkpt lat="45.6175300" lon="8.3673900">
<time>2017-08-08T14:24:24.487Z</time>
</trkpt>
<trkpt lat="45.6173600" lon="8.3675700">
<time>2017-08-08T14:24:24.488Z</time>
</trkpt>
<trkpt lat="45.6173500" lon="8.3676100">
<time>2017-08-08T14:24:24.488Z</time>
</trkpt>
<trkpt lat="45.6173200" lon="8.3677900">
<time>2017-08-08T14:24:24.488Z</time>
</trkpt>
<trkpt lat="45.6173100" lon="8.3679900">
<time>2017-08-08T14:24:24.488Z</time>
</trkpt>
<trkpt lat="45.6173100" lon="8.3680500">
<time>2017-08-08T14:24:24.488Z</time>
</trkpt>
<trkpt lat="45.6172900" lon="8.3682800">
<time>2017-08-08T14:24:24.488Z</time>
</trkpt>
<trkpt lat="45.6172800" lon="8.3686000">
<time>2017-08-08T14:24:24.488Z</time>
</trkpt>
<trkpt lat="45.6172700" lon="8.3687300">
<time>2017-08-08T14:24:24.488Z</time>
</trkpt>
<trkpt lat="45.6172600" lon="8.3688000">
<time>2017-08-08T14:24:24.488Z</time>
</trkpt>
<trkpt lat="45.6172700" lon="8.3689700">
<time>2017-08-08T14:24:24.488Z</time>
</trkpt>
<trkpt lat="45.6172500" lon="8.3691300">
<time>2017-08-08T14:24:24.488Z</time>
</trkpt>
<trkpt lat="45.6172400" lon="8.3693300">
<time>2017-08-08T14:24:24.489Z</time>
</trkpt>
<trkpt lat="45.6172400" lon="8.3693600">
<time>2017-08-08T14:24:24.489Z</time>
</trkpt>
<trkpt lat="45.6172500" lon="8.3695700">
<time>2017-08-08T14:24:24.489Z</time>
</trkpt>
<trkpt lat="45.6172400" lon="8.3697500">
<time>2017-08-08T14:24:24.489Z</time>
</trkpt>
<trkpt lat="45.6172300" lon="8.3698200">
<time>2017-08-08T14:24:24.489Z</time>
</trkpt>
<trkpt lat="45.6172100" lon="8.3699100">
<time>2017-08-08T14:24:24.489Z</time>
</trkpt>
<trkpt lat="45.6171900" lon="8.3701900">
<time>2017-08-08T14:24:24.489Z</time>
</trkpt>
<trkpt lat="45.6171900" lon="8.3703700">
<time>2017-08-08T14:24:24.489Z</time>
</trkpt>
<trkpt lat="45.6171900" lon="8.3706300">
<time>2017-08-08T14:24:24.489Z</time>
</trkpt>
<trkpt lat="45.6171600" lon="8.3708900">
<time>2017-08-08T14:24:24.489Z</time>
</trkpt>
<trkpt lat="45.6171800" lon="8.3708900">
<time>2017-08-08T14:24:24.489Z</time>
</trkpt>
<trkpt lat="45.6175500" lon="8.3709200">
<time>2017-08-08T14:24:24.490Z</time>
</trkpt>
</trkseg>
</trk>
</gpx>
